ECMWFNIL_con_mucape_015.txt.gz
CAPE
0 0 0 0 0 0 0 0 0 0 0 0 0 0 0 0 0 0 0 0 0 0 0 0 0 0 0 0 0 0 0 0 0 0 0 0 0 0 0 0 0 0
0 0 0 0 0 0 0 0 0 0 0 0 0 0 0 0 0 0 0 0 0 0 0 0 0 0 0 0 0 0 0 0 0 0 0 0 0 0 0 0 0 0
0 0 0 0 0 0 0 0 0 0 0 0 0 0 0 0 0 0 0 0 0 0 0 0 0 0 0 0 0 0 0 0 0 0 0 0 0 0 0 0 0 0
0 0 0 0 0 0 0 0 0 0 0 0 0 0 0 0 0 0 0 0 0 0 0 0 0 0 0 0 0 0 0 0 0 0 0 0 0 0 0 0 0 0
0 0 0 0 0 0 0 0 0 0 0 0 0 0 0 0 0 0 0 0 0 0 0 0 0 0 0 0 0 0 0 0 0 0 0 0 0 0 0 0 0 0
0 0 0 0 0 0 0 0 0 0 0 0 0 0 0 0 0 0 0 0 0 0 0 0 0 0 0 0 0 0 0 0 0 0 0 0 0 0 0 0 0 0
222 207 0 0 0 0 0 0 0 0 0 0 0 0 0 0 0 0 0 0 0 0 0 0 0 0 0 0 0 0 0 0 0 0 0 0 0 0 0 0 0 0
275 258 214 0 0 0 0 0 0 0 0 0 0 0 0 0 0 0 0 0 0 0 0 0 0 0 0 0 0 0 0 0 0 0 0 0 0 0 0 0 0 0
320 314 277 223 0 0 0 0 0 0 0 0 0 0 0 0 0 0 0 0 0 0 0 0 0 0 0 0 0 0 0 0 0 0 0 0 0 0 0 0 0 0
369 358 334 304 234 0 0 0 0 0 0 0 0 0 0 0 0 0 0 0 0 0 0 0 0 0 0 0 0 0 0 0 0 0 0 0 0 0 0 0 0 0
434 409 393 375 348 246 44 0 0 0 0 0 0 0 0 0 0 0 0 0 0 0 0 0 0 0 0 0 0 0 0 0 0 0 0 0 0 0 0 0 0 0
478 472 455 448 437 381 247 0 0 0 0 0 0 0 0 0 0 0 0 0 0 0 0 0 0 0 0 0 0 0 0 0 0 0 0 0 0 0 0 0 0 0
539 547 539 521 508 480 376 170 0 0 0 0 0 0 0 0 0 0 0 0 0 0 0 0 0 0 0 0 0 0 0 0 0 0 0 0 0 0 0 0 0 0
622 621 621 594 581 551 492 299 24 0 0 0 0 0 0 0 0 0 0 0 0 0 0 0 0 0 0 0 0 0 0 0 0 0 0 0 0 0 0 0 0 0
731 640 654 698 666 609 555 447 30 0 0 0 0 0 0 0 0 0 0 0 0 0 0 0 0 0 0 0 0 0 0 0 0 0 0 0 0 0 0 0 0 0
917 842 781 757 708 568 517 521 63 1 0 0 0 0 0 0 0 0 0 0 0 0 0 0 0 0 0 0 0 0 0 0 0 0 0 0 0 0 0 0 0 0
1193 1030 872 775 568 487 0 0 6 0 0 0 0 0 0 0 0 0 0 0 0 0 0 0 0 0 0 0 0 0 0 0 0 0 0 0 0 0 0 0 0 0
1068 1025 884 750 515 188 123 47 0 0 0 0 0 0 0 0 0 0 0 0 0 0 0 0 0 0 0 0 0 0 0 0 0 0 0 0 0 0 0 0 0 0
882 872 712 538 364 303 74 57 4 0 0 0 0 0 0 0 0 0 0 0 0 0 0 0 0 0 0 0 0 0 0 0 0 0 0 0 0 0 0 0 0 0
580 691 717 564 334 266 195 180 9 1 0 0 0 0 0 0 0 0 0 0 0 0 0 0 0 0 0 0 0 0 0 0 0 0 0 0 0 0 0 0 0 0
379 551 666 627 383 192 0 5 36 2 0 0 0 0 0 0 0 0 0 0 0 0 0 0 0 0 0 0 0 0 0 0 0 0 0 0 0 0 0 0 0 0
253 482 581 551 354 281 71 43 50 18 3 0 0 0 0 0 0 0 0 0 0 0 0 0 0 0 0 0 0 0 0 0 0 0 0 0 0 0 0 0 0 0
92 320 444 496 411 292 106 18 68 42 4 0 0 0 0 0 0 0 0 0 0 0 0 0 0 0 0 0 0 0 0 0 0 0 0 0 0 0 0 0 0 0
0 172 277 424 406 288 219 44 35 45 44 22 2 0 0 0 0 0 0 0 0 0 0 0 0 0 0 0 0 0 0 0 0 0 0 0 0 0 0 0 0 0
101 148 241 303 234 34 100 77 109 66 38 13 0 0 0 0 0 0 0 0 0 0 0 0 0 0 0 0 0 0 0 0 0 0 0 0 0 0 0 0 0 1
125 223 292 174 33 5 6 20 62 27 15 19 3 0 0 0 0 0 0 0 0 0 0 0 0 0 0 0 0 0 0 0 0 0 0 0 0 0 2 2 4 4

ECMWFNIL_con_mucape_021.txt.gz
CAPE
11 17 71 40 40 30 33 22 17 13 7 12 0 0 0 0 0 0 0 0 0 0 0 0 0 0 0 0 0 0 0 0 0 0 0 0 0 0 0 0 0 0
2 11 19 61 51 11 11 27 33 18 10 4 7 10 4 0 0 0 0 0 0 0 0 0 0 0 0 0 0 0 0 0 0 0 0 0 0 0 0 0 0 0
1 1 15 37 52 44 24 7 23 29 27 7 15 3 0 3 0 0 0 0 0 0 0 0 0 0 0 0 0 0 0 0 0 0 0 0 0 0 0 0 0 0
0 3 8 39 101 95 51 3 0 8 16 4 0 0 1 0 0 0 0 0 0 0 0 0 0 0 0 0 0 0 0 0 0 0 0 0 0 0 0 0 0 0
3 2 4 14 56 61 31 1 5 4 5 8 9 0 0 0 0 0 0 0 0 0 0 0 0 0 0 0 0 0 0 0 0 0 0 0 0 0 0 0 0 0
0 0 0 1 12 37 20 0 4 4 5 9 7 0 0 0 0 0 0 0 0 0 0 0 0 0 0 0 0 0 0 0 0 0 0 0 0 0 0 0 0 0
19 2 0 0 7 6 34 56 38 1 0 4 3 0 0 0 0 0 0 0 0 0 0 0 0 0 0 0 0 0 0 0 0 0 0 0 0 0 0 0 0 0
3 8 0 0 21 127 28 33 40 8 0 0 0 0 0 0 0 0 0 0 0 0 0 0 0 0 0 0 0 0 0 0 0 0 0 0 0 0 0 0 0 0
50 40 8 67 63 165 189 187 88 14 0 0 0 0 0 0 0 0 0 0 0 0 0 0 0 0 0 0 0 0 0 0 0 0 0 0 0 0 0 0 0 0
190 169 62 30 4 19 33 192 227 231 224 196 0 0 0 0 0 0 0 0 0 0 0 0 0 0 0 0 0 0 0 0 0 0 0 0 0 0 0 0 0 0
436 337 216 65 13 44 12 18 136 254 282 276 262 203 0 0 0 0 0 0 0 0 0 0 0 0 0 0 0 0 0 0 0 0 0 0 0 0 0 0 0 0
534 544 516 463 402 354 317 91 26 81 312 342 273 240 270 38 0 0 0 0 0 0 0 0 0 0 0 0 0 0 0 0 0 0 0 0 0 0 0 0 0 0
630 661 648 595 561 584 603 585 546 503 419 317 289 217 0 53 0 0 0 0 0 0 0 0 0 0 0 0 0 0 0 0 0 0 0 0 0 0 0 0 0 0
588 654 659 680 718 733 749 730 697 654 614 550 487 354 85 5 0 0 0 0 0 0 0 0 0 0 0 0 0 0 0 0 0 0 0 0 0 0 0 0 0 0
487 530 550 478 539 618 703 751 704 602 509 440 410 372 366 257 58 38 6 0 0 0 0 0 0 0 0 0 0 0 0 0 0 0 0 0 0 0 0 0 0 0
80 288 405 440 394 443 486 528 596 626 621 618 439 175 50 6 16 67 61 19 18 0 0 0 0 0 0 0 0 0 0 0 0 0 0 0 0 0 0 0 0 0
0 27 151 293 378 274 360 395 404 394 388 399 466 509 429 209 0 0 0 0 0 0 0 0 0 0 0 0 0 0 0 0 0 0 0 0 0 0 0 0 0 0
0 0 1 78 202 209 148 254 274 284 284 313 327 412 422 377 295 268 271 73 0 0 0 0 0 0 0 0 0 0 0 0 0 0 0 0 0 0 0 0 0 0
0 0 0 8 54 86 69 5 0 0 128 216 254 236 299 288 263 210 156 45 0 0 0 0 0 0 0 0 0 0 0 0 0 0 0 0 0 0 0 0 0 0
0 0 0 0 0 6 8 13 0 0 0 0 0 169 227 306 270 224 144 92 0 0 0 0 0 0 0 0 0 0 0 0 0 0 0 0 0 0 0 0 0 0
0 0 0 0 0 0 0 1 0 0 0 0 0 0 70 311 264 184 0 86 27 3 0 0 0 0 0 0 0 0 0 0 0 0 0 0 0 0 0 0 0 0
0 0 0 0 0 0 0 0 1 0 0 0 0 0 55 240 264 236 124 122 69 0 0 0 0 0 0 0 0 0 0 0 0 0 0 0 0 0 0 0 0 0
0 0 0 0 0 0 0 1 2 0 0 0 0 0 0 132 52 205 162 111 45 0 0 0 0 0 0 0 0 0 0 0 0 0 0 0 0 0 0 0 0 0
0 0 0 0 0 0 0 1 3 2 0 0 0 0 0 159 159 154 137 0 8 6 3 0 1 0 0 0 0 0 0 0 0 0 0 0 0 0 0 0 0 0
0 0 0 0 0 0 0 2 2 2 0 0 20 57 97 132 136 116 39 19 4 0 0 1 1 0 0 0 0 0 0 0 0 0 0 0 0 0 0 0 0 0
0 0 0 0 0 0 2 3 1 0 0 10 38 38 75 29 132 71 12 0 0 2 2 1 0 0 0 0 0 0 0 0 0 0 0 0 0 0 0 0 0 0

ECMWFNIL_con_mucape_024.txt.gz
CAPE
477 414 351 71 12 2 64 16 15 25 6 0 0 0 0 0 0 0 0 0 0 0 0 0 0 0 0 0 0 0 0 0 0 0 0 0 0 0 0 0 0 0
611 491 254 172 66 12 68 92 52 32 11 0 0 0 0 1 10 0 7 2 0 0 0 0 0 0 0 0 0 0 0 0 0 0 0 0 0 0 0 0 0 0
722 669 513 331 215 280 342 345 178 107 25 23 0 0 1 18 11 2 24 6 0 0 0 0 0 0 0 0 0 0 0 0 0 0 0 0 0 0 0 0 0 0
832 804 672 535 411 490 663 486 344 230 107 170 20 7 88 85 3 12 33 4 1 0 0 0 0 0 0 0 0 0 0 0 0 0 0 0 0 0 0 0 0 0
879 870 775 677 576 530 681 615 509 304 263 328 279 129 34 12 8 19 36 10 14 2 0 0 0 0 0 0 0 0 0 0 0 0 0 0 0 0 0 0 0 0
830 737 710 653 685 737 683 706 586 468 399 420 460 269 32 16 8 19 37 34 26 10 1 0 0 0 0 0 0 0 0 0 0 0 0 0 0 0 0 0 0 0
692 742 746 676 688 710 801 703 619 468 444 462 520 442 150 84 3 17 36 37 19 10 0 0 0 0 0 0 0 0 0 0 0 0 0 0 0 0 0 0 0 0
568 588 646 642 666 725 774 696 652 592 548 537 544 534 323 199 30 34 52 66 14 7 0 0 0 0 0 0 0 0 0 0 0 0 0 0 0 0 0 0 0 0
545 535 561 648 637 636 673 685 657 706 674 693 602 598 450 347 143 99 84 76 52 31 1 0 0 0 0 0 0 0 0 0 0 0 0 0 0 0 0 0 0 0
804 734 705 708 666 640 573 666 660 679 757 741 553 536 535 437 283 204 162 101 78 39 7 0 0 0 0 0 0 0 0 0 0 0 0 0 0 0 0 0 0 0
943 946 999 884 841 830 794 830 830 740 719 645 570 464 511 476 303 179 267 163 132 45 5 0 0 0 0 0 0 0 0 0 0 0 0 0 0 0 0 0 0 0
1142 1102 1020 1017 959 883 922 927 944 893 830 766 592 506 458 229 257 226 135 146 87 70 21 2 0 0 0 0 0 0 0 0 0 0 0 0 0 0 0 0 0 0
1120 1158 1163 1175 1148 1049 1006 986 925 888 912 880 758 617 495 344 341 226 228 200 52 46 15 7 7 0 0 0 0 0 0 0 0 0 0 0 0 0 0 0 0 0
234 788 925 946 997 1121 1121 1034 1004 940 872 859 750 654 552 500 562 500 434 269 174 57 4 3 10 26 10 0 0 0 0 0 0 0 0 0 0 0 0 0 0 0
0 69 245 358 641 794 918 973 976 916 880 654 512 499 544 604 571 546 540 512 369 18 0 3 0 0 1 0 0 0 0 0 0 0 0 0 0 0 0 0 0 0
0 0 0 8 92 286 450 775 766 741 778 704 546 472 455 479 475 469 434 406 325 192 114 72 0 0 0 0 0 0 0 0 0 0 0 0 0 0 0 0 0 0
0 0 0 0 5 122 199 290 587 789 626 581 450 338 321 340 115 190 201 208 174 30 44 12 17 0 0 0 0 0 0 0 0 0 0 0 0 0 0 0 0 0
0 0 0 0 0 0 42 207 320 485 779 747 640 500 153 184 190 194 226 210 214 143 72 17 0 0 0 0 0 0 0 0 0 0 0 0 0 0 0 0 0 0
0 0 0 0 0 0 14 188 260 342 428 572 637 682 484 365 397 361 382 136 76 251 157 12 0 0 0 0 0 0 0 0 0 0 0 0 0 0 0 0 0 0
0 0 0 0 0 1 42 71 156 255 351 429 555 624 498 356 376 268 272 253 250 233 137 0 0 0 0 0 0 0 0 0 0 0 0 0 0 0 0 0 0 0
0 0 0 0 0 0 33 53 68 146 289 355 378 416 381 301 262 317 264 159 209 212 145 0 0 12 0 0 0 0 0 0 0 0 0 0 0 0 0 0 0 0
0 0 0 0 0 1 22 53 96 122 214 283 297 309 234 219 220 252 195 291 224 0 0 0 0 39 12 3 0 0 0 0 0 0 0 0 0 0 0 0 0 0
0 0 0 0 0 0 0 43 109 144 175 186 232 174 153 117 213 245 95 134 130 0 0 0 5 54 34 18 7 2 0 0 0 0 0 0 0 0 0 0 0 0
0 0 0 0 0 0 0 9 86 156 179 178 165 110 72 95 230 138 5 117 0 97 0 109 88 48 22 5 0 1 0 0 0 0 0 0 0 0 0 0 0 0
0 0 0 0 0 0 0 7 51 96 93 112 64 105 86 158 99 12 0 72 46 136 130 107 85 27 7 4 2 3 2 2 1 1 0 0 0 0 0 0 0 0
0 0 0 0 0 0 4 4 20 35 56 73 70 78 106 47 3 0 122 94 38 141 94 21 5 4 4 0 0 0 2 6 10 4 2 1 0 0 0 0 0 0

ECMWFNIL_con_mucape_027.txt.gz
CAPE
413 205 308 142 56 46 161 38 18 52 15 5 12 9 10 4 2 0 0 0 0 0 0 0 0 0 0 0 0 0 0 0 0 0 0 0 0 0 0 0 0 0
579 404 281 204 47 10 174 112 54 112 81 3 0 4 14 6 45 0 3 1 1 0 0 0 0 0 0 0 0 0 0 0 0 0 0 0 0 0 0 0 0 0
658 588 535 352 171 63 131 272 174 132 162 33 1 7 18 25 125 1 6 11 0 0 0 0 0 0 0 0 0 0 0 0 0 0 0 0 0 0 0 0 0 0
846 781 668 536 369 241 158 319 253 191 154 127 38 17 37 93 178 29 60 37 0 14 1 0 0 0 0 0 0 0 0 0 0 0 0 0 0 0 0 0 0 0
1061 991 834 681 514 402 453 488 432 252 162 151 196 64 41 186 242 38 134 104 9 43 32 0 0 0 0 0 0 0 0 0 0 0 0 0 0 0 0 0 0 0
1037 1029 914 744 660 515 451 604 572 476 312 247 342 180 97 341 260 54 118 164 37 68 60 19 0 0 0 0 0 0 0 0 0 0 0 0 0 0 0 0 0 0
856 901 928 764 660 596 604 529 598 602 501 27 196 431 138 343 284 99 117 188 138 114 100 85 9 0 0 0 0 0 0 0 0 0 0 0 0 0 0 0 0 0
738 705 387 760 626 679 707 673 583 692 835 578 498 509 352 236 259 190 170 221 192 175 176 142 79 3 0 0 0 0 0 0 0 0 0 0 0 0 0 0 0 0
769 894 950 707 657 533 540 655 282 670 794 826 770 673 708 525 207 177 220 235 272 238 218 203 130 50 17 0 0 0 0 0 0 0 0 0 0 0 0 0 0 0
908 840 810 720 698 752 728 460 319 273 309 816 954 967 824 784 500 211 262 296 251 301 280 238 177 90 32 3 0 0 0 0 0 0 0 0 0 0 0 0 0 0
1008 1007 979 905 945 1099 976 874 309 349 501 438 573 753 781 767 712 504 345 424 414 384 376 312 250 138 54 18 0 0 0 0 0 0 0 0 0 0 0 0 0 0
1060 1183 1185 1173 1051 1114 1395 1242 1306 1167 1077 928 608 714 759 673 601 591 306 441 484 279 389 384 258 186 80 39 6 0 0 0 0 0 0 0 0 0 0 0 0 0
877 800 835 1145 1328 1165 1016 1137 1045 869 811 764 793 794 850 778 705 619 643 631 612 542 479 359 395 169 133 64 29 2 0 0 0 0 0 0 0 0 0 0 0 0
1 253 445 899 1190 768 783 849 892 934 808 887 811 1005 802 757 798 639 649 594 592 548 404 586 277 234 212 102 76 19 1 0 0 0 0 0 0 0 0 0 0 0
8 1 0 0 17 152 568 818 749 599 702 566 573 728 848 680 635 782 726 651 638 644 389 464 338 271 286 223 195 24 0 0 0 0 0 0 0 0 0 0 0 0
0 0 0 0 0 0 49 200 412 567 787 768 750 693 692 796 735 655 765 754 632 593 414 325 331 343 267 101 139 103 31 11 0 0 0 0 0 0 0 0 0 0
0 0 0 0 0 0 0 6 54 207 445 506 516 566 656 765 775 743 786 779 647 547 395 157 239 136 79 268 58 38 35 12 0 0 0 0 0 0 0 0 0 0
0 0 0 0 0 0 0 0 0 0 106 455 504 456 456 466 587 637 580 578 628 486 662 360 240 30 53 0 0 0 38 25 6 0 0 0 0 0 0 0 0 0
0 0 0 0 0 0 0 0 0 0 1 82 299 452 534 482 474 488 556 572 567 584 429 222 242 0 0 0 0 0 0 0 0 0 0 0 0 0 0 0 0 0
0 0 0 0 0 0 0 0 0 3 12 32 44 126 210 356 417 499 507 533 617 552 559 373 230 52 0 0 0 0 0 0 0 0 0 0 1 0 0 0 0 0
0 0 0 0 0 0 0 0 0 9 31 61 90 125 129 158 284 319 404 354 368 478 458 535 10 0 0 0 0 0 11 0 0 0 0 0 2 0 0 0 0 0
0 0 0 0 0 0 0 0 0 25 62 50 7 31 134 186 173 291 320 374 472 526 560 179 21 35 0 0 11 0 0 18 6 0 2 4 2 2 0 0 0 0
0 0 0 0 0 0 0 0 0 0 47 75 89 74 74 127 161 196 237 274 318 339 110 0 0 0 0 21 27 107 15 6 7 3 3 1 0 0 0 0 0 0
0 0 0 0 0 0 0 4 14 22 52 125 173 164 122 106 109 97 140 196 179 268 0 0 0 0 15 5 6 10 20 8 4 1 0 0 0 0 0 0 0 0
0 0 0 0 0 0 6 12 24 50 72 117 182 189 170 146 59 82 149 162 58 0 0 0 0 0 0 4 4 15 24 26 13 3 2 1 0 0 0 0 0 0
0 0 0 5 18 28 26 39 53 56 103 162 156 106 83 139 158 130 48 0 0 0 0 0 3 5 8 2 11 19 44 44 0 0 9 1 0 0 0 1 2 4

ECMWFNIL_con_mucape_033.txt.gz
CAPE
4 0 11 0 4 0 1 0 0 0 0 0 0 0 0 0 0 0 0 0 0 0 0 0 0 0 0 0 0 0 0 0 0 0 0 0 0 0 0 0 0 0
14 9 55 6 17 22 15 7 0 9 2 0 0 0 0 0 0 0 0 0 0 0 0 0 0 0 0 0 0 0 0 0 0 0 0 0 0 0 0 0 0 0
51 5 23 28 47 110 71 201 60 5 58 9 0 0 0 0 0 0 0 0 0 0 0 0 0 0 0 0 0 0 0 0 0 0 0 0 0 0 0 0 0 0
23 13 12 0 209 235 76 343 180 96 38 142 17 2 3 0 0 0 0 105 0 0 0 0 0 0 0 0 0 0 0 0 0 0 0 0 0 0 0 0 0 0
207 122 126 16 140 347 205 73 368 181 111 2 195 55 40 0 0 0 0 1 0 0 0 0 0 0 0 0 0 0 0 0 0 0 0 0 0 0 0 0 0 0
687 563 420 218 163 530 96 92 315 323 220 4 34 42 40 8 0 0 7 2 2 0 0 0 0 0 0 0 0 0 0 0 0 0 0 0 0 0 0 0 0 0
755 762 736 632 475 498 262 251 308 365 374 308 174 13 56 36 1 2 6 11 8 10 2 0 0 0 0 0 0 0 0 0 0 0 0 0 0 0 0 0 0 0
808 848 711 572 490 430 441 285 288 271 221 124 326 449 302 162 78 158 145 109 101 6 6 2 0 0 0 0 0 0 0 0 0 0 0 0 0 0 0 0 0 0
764 865 741 682 578 484 391 300 374 258 258 132 224 472 508 437 271 247 195 206 275 269 189 16 54 51 110 60 38 0 0 0 0 0 0 0 0 0 0 0 0 0
656 728 630 749 513 593 797 701 573 534 447 327 444 511 472 456 415 418 333 283 247 16 24 188 210 209 203 197 150 168 119 20 0 0 0 0 0 0 0 0 0 0
558 679 697 770 667 647 654 637 619 564 572 494 427 496 440 399 407 322 370 385 259 35 10 24 104 102 121 175 245 239 223 172 105 11 8 2 8 17 6 0 0 0
413 740 714 756 741 650 583 489 443 551 542 767 780 376 362 502 437 338 327 348 96 88 64 70 25 26 55 40 26 162 216 225 209 166 165 128 27 46 0 0 0 0
872 1034 991 955 827 758 653 451 466 539 570 663 796 656 631 651 512 457 428 417 417 300 122 112 94 32 7 34 19 20 2 15 55 197 184 190 195 5 0 0 0 0
471 752 733 758 671 776 748 643 506 515 592 590 608 681 627 643 612 553 539 494 484 442 334 84 46 17 21 33 41 100 29 26 2 183 175 169 187 55 46 0 0 0
789 752 768 603 510 480 518 506 496 485 530 571 565 574 578 554 482 451 463 476 451 422 369 256 317 264 79 244 254 110 57 170 186 200 200 198 181 188 168 96 0 0
0 363 388 584 525 568 554 480 421 407 406 449 459 476 534 561 549 517 486 504 526 516 464 375 240 47 318 331 329 257 29 50 175 231 231 182 142 127 128 86 23 1
0 0 0 0 7 16 294 350 489 559 514 425 416 488 531 507 467 492 512 502 482 475 498 511 488 487 480 466 450 361 244 277 319 280 248 190 5 110 138 145 84 8
0 0 0 0 0 0 0 0 30 295 431 498 597 655 607 510 483 487 460 428 405 433 466 504 575 605 590 512 482 444 364 306 323 274 164 59 0 136 138 129 114 52
0 0 0 0 0 0 0 0 0 0 0 0 66 239 430 610 660 644 572 560 552 517 483 504 520 594 654 690 700 680 578 496 416 323 197 181 27 6 59 100 6 90
0 0 0 0 0 0 0 0 0 0 0 0 0 0 0 38 220 520 685 717 664 613 634 649 691 706 720 720 732 698 611 528 279 251 73 69 46 0 0 27 20 24
0 0 0 0 0 0 0 0 0 0 0 0 0 0 0 0 0 0 0 7 151 361 495 505 413 573 667 738 785 702 580 490 492 388 224 70 49 0 0 0 0 26
0 0 0 0 0 0 0 0 0 0 0 0 0 0 0 0 0 0 0 0 0 56 269 390 414 590 706 747 718 651 524 443 392 344 290 170 0 0 0 0 0 0
0 0 0 0 0 0 0 0 0 0 0 0 0 0 0 0 0 0 0 0 0 0 20 258 381 392 382 503 551 516 466 425 384 308 212 195 166 92 49 15 0 5
0 0 0 0 0 0 0 0 0 0 0 0 0 0 0 0 0 0 0 0 0 0 0 142 213 240 279 385 414 387 396 382 255 254 173 27 0 9 0 0 0 6
0 0 0 0 0 0 0 0 0 0 0 0 0 0 0 0 0 0 0 0 0 0 0 71 145 179 216 257 274 294 296 298 293 263 196 0 0 0 0 0 0 0
0 0 0 0 0 0 0 0 0 0 0 0 0 0 0 0 0 0 0 0 0 0 0 0 0 53 162 175 178 188 219 245 212 142 135 118 72 52 4 2 0 0

ECMWFNIL_con_mucape_036.txt.gz
CAPE
0 0 0 0 0 0 0 0 0 0 0 0 0 0 0 0 0 0 0 0 0 0 0 0 0 0 0 0 0 0 0 0 0 0 0 0 0 0 0 0 0 0
0 0 0 0 0 0 0 0 0 0 0 0 0 0 0 0 0 0 0 0 0 0 0 0 0 0 0 0 0 0 0 0 0 0 0 0 0 0 0 0 0 0
0 0 0 0 0 0 0 0 0 0 0 0 0 0 0 0 0 0 0 0 0 0 0 0 0 0 0 0 0 0 0 0 0 0 0 0 0 0 0 0 0 0
0 0 0 0 0 0 0 0 0 0 0 0 0 0 0 0 0 0 0 0 0 0 0 0 0 0 0 0 0 0 0 0 0 0 0 0 0 0 0 0 0 0
120 0 0 0 0 1 3 47 189 43 134 140 116 97 21 0 0 0 0 0 0 0 0 0 0 0 0 0 0 0 0 0 0 0 0 0 0 0 0 0 0 0
267 3 0 0 5 1 9 16 264 244 212 182 163 138 122 71 0 0 0 0 0 0 0 0 0 0 0 0 0 0 0 0 0 0 0 0 0 0 0 0 0 0
168 77 35 1 2 149 113 14 39 30 44 145 115 18 27 28 14 7 4 112 46 94 80 0 0 0 0 0 0 0 0 0 0 0 0 0 0 0 0 0 0 0
474 288 134 79 1 54 1 8 24 42 59 92 37 209 182 12 19 23 161 147 20 6 12 147 3 0 0 0 0 0 0 0 0 0 0 0 0 0 0 0 0 0
666 559 22 6 16 10 418 172 51 150 53 70 32 247 105 1 178 171 216 227 194 161 190 191 140 133 82 0 0 0 0 0 0 0 0 0 0 0 0 0 0 0
769 724 581 486 444 398 91 372 144 382 62 336 310 241 259 0 13 234 259 255 210 194 220 201 20 0 170 170 180 186 0 0 0 0 0 0 0 0 0 0 0 0
676 738 568 517 591 468 408 394 251 209 440 234 176 199 381 250 373 361 368 350 305 278 269 238 0 0 2 197 201 86 0 102 0 0 0 0 0 0 0 0 0 0
444 501 510 435 393 400 381 496 575 454 5 20 4 0 413 416 456 459 445 458 437 419 381 334 92 0 0 110 185 221 33 71 162 0 0 0 0 0 0 118 7 6
445 632 481 524 515 636 656 621 577 460 372 302 0 57 111 3 4 386 420 421 426 396 357 340 119 0 48 236 236 152 0 1 0 0 0 0 0 0 85 160 35 0
563 705 784 706 618 599 747 795 664 563 443 284 450 384 295 338 347 136 373 399 403 385 386 373 366 381 362 182 0 0 1 20 1 0 0 0 1 0 90 161 144 131
331 303 409 404 516 627 654 635 688 561 453 418 454 520 681 677 658 641 612 579 546 518 494 477 487 498 478 384 198 0 0 16 0 0 0 176 72 0 0 57 166 151
116 109 308 443 520 550 446 444 462 436 419 403 470 551 601 634 639 660 659 633 595 550 503 497 514 512 512 471 416 358 43 268 299 318 330 314 233 0 106 200 216 180
104 470 539 428 434 421 369 348 392 412 410 385 381 385 372 430 499 514 554 572 550 550 543 553 574 597 593 574 545 488 448 417 403 422 415 354 279 219 238 226 232 192
0 0 0 0 0 0 0 47 54 180 268 279 308 348 386 442 510 538 526 522 499 474 464 460 483 496 514 546 604 623 609 575 525 471 431 382 320 302 286 242 234 200
0 0 0 0 0 0 0 0 0 0 0 0 0 2 119 273 307 374 407 457 514 527 527 522 485 481 475 492 541 590 609 612 608 607 578 449 374 368 298 179 140 153
0 0 0 0 0 0 0 0 0 0 0 0 0 0 2 36 47 77 162 213 272 316 376 479 573 583 557 586 622 592 578 602 626 590 524 432 339 242 130 24 34 0
0 0 0 0 0 0 0 0 0 0 0 0 0 0 0 0 0 0 0 0 0 0 100 189 288 447 666 752 701 610 566 625 627 560 423 303 264 246 166 0 0 0
0 0 0 0 0 0 0 0 0 0 0 0 0 0 0 0 0 0 0 0 0 0 0 0 131 245 454 587 613 611 629 578 522 424 320 245 170 0 0 0 0 0
0 0 0 0 0 0 0 0 0 0 0 0 0 0 0 0 0 0 0 0 0 0 0 0 0 0 197 400 556 618 547 470 386 313 270 225 191 28 0 0 21 42
0 0 0 0 0 0 0 0 0 0 0 0 0 0 0 0 0 0 0 0 0 0 0 0 0 0 0 242 384 516 544 496 392 334 273 205 173 132 113 0 0 0
0 0 0 0 0 0 0 0 0 0 0 0 0 0 0 0 0 0 0 0 0 0 0 0 0 0 0 193 277 326 342 321 306 280 243 177 0 0 0 39 28 16
0 0 0 0 0 0 0 0 0 0 0 0 0 0 0 0 0 0 0 0 0 0 0 0 0 0 0 132 196 242 266 258 243 217 205 165 106 7 24 0 0 8

ECMWFNIL_con_mucape_039.txt.gz
CAPE
0 0 0 0 0 0 0 0 0 0 0 0 0 0 0 0 0 0 0 0 0 0 0 0 0 0 0 0 0 0 0 0 0 0 0 0 0 0 0 0 0 0
0 0 0 0 0 0 0 0 0 0 0 0 0 0 0 0 0 0 0 0 0 0 0 0 0 0 0 0 0 0 0 0 0 0 0 0 0 0 0 0 0 0
0 0 0 0 0 0 0 0 0 0 0 0 0 0 0 0 0 0 0 0 0 0 0 0 0 0 0 0 0 0 0 0 0 0 0 0 0 0 0 0 0 0
0 0 0 0 0 0 0 0 0 0 0 0 0 0 0 0 0 0 0 0 0 0 0 0 0 0 0 0 0 0 0 0 0 0 0 0 0 0 0 0 0 0
31 0 0 0 0 0 0 0 0 0 0 0 0 0 0 0 0 0 0 0 0 0 0 0 0 0 0 0 0 0 0 0 0 0 0 0 0 0 0 0 0 0
41 2 0 154 218 32 0 0 0 0 0 0 0 0 0 0 0 0 0 0 0 0 0 0 0 0 0 0 0 0 0 0 0 0 0 0 0 0 0 0 0 0
83 42 230 234 250 68 0 0 0 0 0 0 0 0 0 0 0 0 0 0 0 0 0 0 0 0 0 0 0 0 0 0 0 0 0 0 0 0 0 0 0 0
110 406 379 308 260 183 0 0 0 0 0 0 0 0 0 2 2 0 0 2 0 0 0 0 0 0 0 0 0 0 0 0 0 0 0 0 0 0 0 0 0 0
287 267 432 129 20 86 0 0 0 0 0 0 0 0 0 4 2 0 0 6 0 0 0 0 0 0 0 0 0 0 0 0 0 0 0 0 0 0 0 0 0 0
488 462 383 233 6 6 0 7 10 41 211 0 0 0 1 10 29 2 0 0 0 0 0 8 138 33 0 0 0 0 0 0 0 0 0 0 0 0 0 0 0 0
521 442 342 0 9 16 14 1 0 4 6 0 31 95 3 0 0 0 0 0 0 121 183 164 160 169 52 0 0 0 0 0 0 0 0 0 0 0 0 0 0 0
542 471 448 381 227 180 365 204 94 220 3 6 86 13 10 4 10 0 0 0 4 30 0 127 97 158 53 14 35 0 0 0 0 0 0 0 0 0 0 0 0 0
704 768 688 588 537 476 436 8 66 16 12 11 20 38 65 36 37 45 31 2 0 2 43 55 2 153 237 260 208 0 0 0 213 196 0 1 0 0 0 0 0 0
508 538 574 582 495 377 181 0 14 15 28 52 42 42 47 227 8 13 28 27 14 28 81 221 353 402 394 344 298 269 282 285 236 246 196 8 5 0 0 0 0 0
485 465 410 316 300 246 266 67 42 52 41 95 62 277 340 336 274 16 33 7 6 134 328 365 387 437 409 430 465 466 447 424 338 246 71 1 13 2 55 234 230 155
508 426 310 175 78 82 140 309 205 315 430 382 435 422 419 459 460 308 259 363 373 412 526 600 610 589 540 507 495 487 472 442 384 336 293 249 115 140 307 306 284 216
192 224 220 283 310 256 228 198 194 237 319 346 365 402 392 415 434 411 441 482 499 560 580 547 555 532 514 514 536 565 567 553 525 508 479 455 452 446 438 416 359 290
0 0 0 0 0 0 0 0 0 52 90 168 203 242 272 339 335 356 379 399 401 426 447 433 426 411 410 424 434 443 452 501 531 537 542 532 504 467 422 377 358 328
0 0 0 0 0 0 0 0 0 0 0 0 0 0 0 0 108 134 116 153 180 190 207 203 195 202 247 344 412 405 391 432 470 480 495 520 507 467 418 379 373 353
0 0 0 0 0 0 0 0 0 0 0 0 0 0 0 0 0 0 0 0 0 39 10 0 0 0 0 40 199 359 486 514 509 506 503 514 492 450 368 310 268 239
0 0 0 0 0 0 0 0 0 0 0 0 0 0 0 0 0 0 0 0 0 0 0 0 0 0 0 0 0 136 366 604 598 534 544 556 531 389 221 117 120 128
0 0 0 0 0 0 0 0 0 0 0 0 0 0 0 0 0 0 0 0 0 0 0 0 0 0 0 0 0 0 194 353 488 542 571 544 416 257 157 0 0 0
0 0 0 0 0 0 0 0 0 0 0 0 0 0 0 0 0 0 0 0 0 0 0 0 0 0 0 0 0 0 152 304 436 443 404 333 237 169 138 59 0 0
0 0 0 0 0 0 0 0 0 0 0 0 0 0 0 0 0 0 0 0 0 0 0 0 0 0 0 0 0 0 168 246 332 363 344 268 198 148 0 0 0 0
0 0 0 0 0 0 0 0 0 0 0 0 0 0 0 0 0 0 0 0 0 0 0 0 0 0 0 0 0 0 94 189 234 260 260 227 182 145 42 0 0 0
0 0 0 0 0 0 0 0 0 0 0 0 0 0 0 0 0 0 0 0 0 0 0 0 0 0 0 0 0 0 0 6 128 138 159 164 151 131 98 72 49 20

ECMWFNIL_con_mucape_042.txt.gz
CAPE
0 0 0 0 0 0 0 0 0 0 0 0 0 0 0 0 0 0 0 0 0 0 0 0 0 0 0 0 0 0 0 0 0 0 0 0 0 0 0 0 0 0
0 0 0 0 0 0 0 0 0 0 0 0 0 0 0 0 0 0 0 0 0 0 0 0 0 0 0 0 0 0 0 0 0 0 0 0 0 0 0 0 0 0
0 0 0 0 0 0 0 0 0 0 0 0 0 0 0 0 0 0 0 0 0 0 0 0 0 0 0 0 0 0 0 0 0 0 0 0 0 0 0 0 0 0
198 84 0 0 0 0 0 0 0 0 0 0 0 0 0 0 0 0 0 1 0 0 0 0 0 0 0 0 0 0 0 0 0 0 0 0 0 0 0 0 0 0
426 408 0 0 0 0 0 0 0 0 0 0 0 0 0 0 0 0 0 0 0 0 0 0 0 0 0 0 0 0 0 0 0 0 0 0 0 0 0 0 0 0
588 149 2 0 4 1 0 0 0 0 0 0 0 0 0 0 0 0 0 0 0 0 0 0 0 0 0 0 0 0 0 0 0 0 0 0 0 0 0 0 0 0
748 498 9 0 4 5 6 5 4 0 0 0 0 0 0 0 0 0 0 0 0 0 0 0 0 0 0 0 0 0 0 0 0 0 0 0 0 0 0 0 0 0
906 626 12 0 0 0 242 1 1 2 4 0 0 0 0 0 0 0 0 0 0 0 0 0 0 0 0 0 0 0 0 0 0 0 0 0 0 0 0 0 0 0
885 741 55 5 0 35 280 211 0 1 2 0 0 0 0 0 0 0 0 0 1 0 0 0 0 0 0 0 0 0 0 0 0 0 0 0 0 0 0 0 0 0
959 808 250 55 342 19 314 286 0 0 0 0 0 0 0 0 0 0 0 0 0 0 127 0 0 0 0 1 6 0 0 0 0 0 0 0 0 0 0 0 0 0
804 627 354 190 425 464 418 361 315 0 0 0 0 0 138 0 0 0 0 0 0 77 46 129 0 20 0 0 0 2 0 1 0 0 0 104 119 76 0 0 0 0
924 760 415 51 423 474 448 368 331 0 173 0 0 0 0 0 0 0 0 5 4 131 169 160 28 0 0 0 0 1 0 7 15 4 0 34 175 161 113 0 0 0
655 542 443 409 400 436 401 337 298 0 0 0 241 262 261 0 0 0 2 18 41 16 10 23 15 2 0 0 0 4 0 14 27 16 5 4 169 187 127 4 0 0
650 593 558 474 418 400 441 352 327 392 292 269 0 0 0 0 0 6 0 18 23 6 2 16 30 15 37 44 76 92 98 195 230 238 210 224 196 0 57 0 1 0
664 588 670 675 460 0 365 456 421 307 0 0 0 0 0 0 5 0 1 3 0 0 110 18 15 0 225 294 330 329 323 299 269 295 284 301 304 238 153 0 0 4
574 502 513 480 470 470 457 392 120 10 5 0 0 0 42 100 107 134 158 140 218 83 101 244 331 390 468 470 438 409 429 433 438 431 398 373 306 254 204 184 183 78
617 603 588 532 448 350 244 54 20 26 3 231 262 319 318 335 382 412 426 385 394 428 452 447 433 428 409 360 326 321 333 423 470 482 479 466 455 447 415 380 351 346
438 453 418 369 319 263 199 143 90 164 179 135 261 280 257 281 342 350 376 412 401 394 398 352 313 131 0 81 103 215 253 274 311 365 400 430 433 407 377 329 312 284
0 0 0 0 0 0 0 0 0 0 0 0 0 0 185 234 218 243 254 235 213 0 0 0 0 0 0 0 0 0 0 222 320 346 362 358 370 375 375 359 328 289
0 0 0 0 0 0 0 0 0 0 0 0 0 0 0 0 0 0 0 0 0 0 0 0 0 0 0 0 0 0 0 0 84 371 475 451 416 409 398 381 322 239
0 0 0 0 0 0 0 0 0 0 0 0 0 0 0 0 0 0 0 0 0 0 0 0 0 0 0 0 0 0 0 0 0 138 332 418 432 432 453 411 287 135
0 0 0 0 0 0 0 0 0 0 0 0 0 0 0 0 0 0 0 0 0 0 0 0 0 0 0 0 0 0 0 0 0 156 280 383 432 448 450 334 174 53
0 0 0 0 0 0 0 0 0 0 0 0 0 0 0 0 0 0 0 0 0 0 0 0 0 0 0 0 0 0 0 0 0 149 230 294 332 295 233 174 109 0
0 0 0 0 0 0 0 0 0 0 0 0 0 0 0 0 0 0 0 0 0 0 0 0 0 0 0 0 0 0 0 0 0 102 153 188 229 205 176 138 76 0
1 0 0 0 0 0 0 0 0 0 0 0 0 0 0 0 0 0 0 0 0 0 0 0 0 0 0 0 0 0 0 0 0 0 0 77 120 122 66 0 0 0
2 4 1 0 0 0 0 0 0 0 0 0 0 0 0 0 0 0 0 0 0 0 0 0 0 0 0 0 0 0 0 0 0 0 0 0 0 0 0 2 0 0

ECMWFNIL_con_mucape_045.txt.gz
CAPE
69 167 285 254 234 242 154 105 55 51 39 11 1 0 2 0 0 1 2 3 22 7 0 0 0 0 0 0 0 0 0 0 0 0 0 0 0 0 0 0 0 0
54 115 112 181 61 5 9 18 8 12 4 44 13 1 0 1 2 3 12 25 17 8 0 0 0 0 0 0 0 0 0 0 0 0 0 0 0 0 0 0 0 0
309 233 112 132 129 31 7 0 0 0 18 56 34 19 8 14 8 3 10 20 7 8 3 3 2 0 0 0 0 0 0 0 0 0 0 0 0 0 0 0 0 0
473 300 251 340 290 128 8 0 0 0 6 22 65 53 43 20 21 8 10 1 4 0 0 0 4 0 0 0 0 0 0 0 0 0 0 0 0 0 0 0 0 0
496 304 352 227 152 83 21 28 3 3 31 127 71 13 42 80 67 26 34 1 0 0 0 0 0 2 0 0 0 0 0 0 0 0 0 0 0 0 0 0 0 0
402 257 190 152 153 136 75 65 18 4 1 5 30 0 27 68 68 41 39 42 5 0 0 0 1 0 0 0 0 0 0 0 0 0 0 0 0 0 0 0 0 0
412 393 410 353 167 12 101 193 38 2 3 2 0 10 0 7 12 43 36 25 14 0 0 1 0 0 0 0 0 0 0 0 0 0 0 0 0 0 0 0 0 0
474 486 534 562 346 310 285 262 214 1 1 2 3 0 61 82 18 95 107 82 57 19 4 0 0 0 0 0 0 0 0 0 0 0 0 0 0 0 0 0 0 0
551 609 624 721 467 440 322 261 354 274 18 277 2 4 78 94 92 249 164 126 126 114 63 41 29 46 121 159 132 32 2 0 0 0 0 0 0 0 0 0 0 0
558 571 723 837 661 605 576 497 480 493 433 511 346 22 302 387 345 260 148 122 138 146 134 78 68 122 223 182 62 47 12 4 3 0 0 0 0 0 0 0 0 0
745 535 698 869 845 670 737 668 772 799 721 396 437 467 450 538 584 432 369 337 344 131 80 92 1 137 129 197 308 264 52 62 16 2 21 2 12 0 0 0 0 0
1004 872 748 805 754 699 868 889 845 745 622 504 545 501 439 551 675 452 682 656 388 177 260 389 117 25 19 34 104 318 318 194 81 15 6 3 0 0 0 0 0 0
962 923 841 651 644 782 976 791 762 874 728 640 576 662 698 672 520 466 441 518 317 346 428 345 235 126 79 92 87 312 361 354 304 153 30 15 11 4 0 0 0 0
938 917 859 646 527 606 634 802 892 966 1019 912 710 813 814 587 576 589 664 425 347 275 337 301 287 233 230 271 93 381 362 324 264 57 176 190 162 134 6 0 0 0
840 777 648 534 532 531 692 731 718 750 560 572 552 695 749 626 518 584 644 593 380 379 316 327 337 290 232 314 393 406 345 366 411 274 282 228 242 240 178 181 16 117
697 646 586 545 539 507 481 409 408 403 366 425 495 525 503 269 236 307 326 400 400 343 340 358 294 272 214 338 347 340 415 386 440 446 393 385 379 337 168 59 123 104
779 723 648 558 558 517 624 380 346 379 408 433 351 304 307 234 293 289 345 331 316 408 422 378 349 278 0 0 9 10 142 195 372 402 435 401 404 533 394 336 109 65
704 620 563 563 559 552 500 424 348 294 232 42 141 165 329 330 226 375 384 369 374 381 314 243 161 0 0 0 0 0 0 16 110 268 380 456 526 499 441 388 361 444
468 471 466 444 414 370 316 292 246 213 165 238 127 276 263 294 253 202 10 0 26 58 168 7 35 0 0 0 0 0 0 0 0 24 271 287 386 376 506 523 440 369
60 2 6 5 11 42 90 146 206 203 87 27 36 10 66 24 4 14 0 11 23 65 12 0 0 0 0 0 0 0 0 0 0 0 52 272 376 348 310 407 402 414
0 0 0 0 0 0 8 3 5 5 31 40 92 184 266 222 118 74 8 0 1 4 74 78 1 0 0 0 0 0 0 0 0 0 0 94 290 371 392 388 374 337
0 0 0 0 0 0 0 0 2 22 22 1 0 0 0 0 0 16 40 19 0 9 122 63 3 0 0 0 0 0 0 0 0 0 0 48 202 258 294 305 250 184
0 0 0 0 0 0 0 1 0 0 0 0 23 27 22 14 3 0 0 5 2 22 81 34 12 0 0 0 0 0 0 40 13 0 0 0 0 0 0 114 99 54
0 0 0 0 0 0 0 1 4 21 42 60 73 64 40 1 0 0 0 0 0 0 1 9 0 0 0 0 0 0 9 92 31 2 0 0 0 0 0 0 0 0
0 0 0 0 0 0 0 0 26 31 12 19 123 144 76 0 0 0 0 0 0 0 0 0 0 0 0 0 0 0 0 50 6 0 0 0 0 0 0 0 0 0
0 0 0 0 0 1 0 18 0 0 0 17 1 2 2 0 0 0 0 0 0 0 0 0 0 0 0 0 0 0 0 2 0 0 0 0 0 0 0 0 0 0

ECMWFNIL_con_mucape_048.txt.gz
CAPE
1482 1002 1225 934 452 396 330 100 33 6 0 0 0 0 2 0 0 0 0 0 0 0 0 0 0 0 0 0 0 0 0 0 0 0 0 0 0 0 0 0 0 0
1412 1299 1033 1084 892 854 802 389 216 17 4 5 5 8 4 3 5 0 0 0 0 0 3 2 0 0 0 0 0 0 0 0 0 0 0 0 0 0 0 0 0 0
1160 1178 1186 1024 749 868 876 675 463 232 42 16 25 11 11 18 13 1 2 2 0 9 28 28 9 0 0 0 0 0 0 0 0 0 0 0 0 0 0 0 0 0
1165 1182 1107 1158 912 704 507 361 203 172 325 54 26 18 39 28 22 14 14 11 17 16 29 46 45 5 0 1 0 0 0 0 0 0 0 0 0 0 0 0 0 0
1134 1102 1006 1111 982 809 549 364 196 55 80 137 86 40 29 38 20 20 50 82 63 47 41 54 73 43 40 30 22 11 0 0 0 0 0 0 0 0 0 0 0 0
1108 1027 1081 1220 1201 956 468 308 219 202 101 286 239 59 64 51 44 61 94 135 124 108 107 95 96 105 62 54 63 55 77 18 1 0 0 0 0 0 0 0 0 0
1327 1164 1163 1046 928 814 618 450 339 304 361 280 232 336 302 230 128 122 99 184 208 158 164 184 166 161 161 152 126 95 44 58 64 58 17 2 0 0 0 0 0 0
1542 1403 1233 1103 1018 926 767 673 639 452 548 357 247 312 318 335 212 222 189 237 246 290 309 288 278 269 231 237 213 257 207 123 128 53 69 58 44 8 0 0 0 0
1596 1459 1287 1262 1194 988 996 756 621 720 643 492 409 312 303 177 262 340 362 363 378 382 357 360 367 415 470 444 363 362 397 388 291 230 196 159 195 171 73 4 0 0
1518 1380 1356 1414 1418 1133 1073 929 866 924 689 616 423 476 516 396 408 421 427 486 484 480 460 476 465 546 516 449 452 448 363 402 440 454 436 409 241 174 96 88 136 58
1290 1335 1302 1348 1403 1247 1273 1154 1160 889 692 702 745 629 553 592 654 636 658 595 720 601 608 581 606 616 617 676 783 718 657 624 587 458 570 568 645 556 236 329 238 207
1449 1357 1283 1244 1148 1261 1566 1327 1131 1024 1001 944 966 723 986 907 784 787 772 845 874 678 590 576 540 602 600 646 643 739 815 808 746 708 659 582 571 492 621 664 594 466
1244 1218 1271 1396 1106 1003 1328 1294 1284 1250 1206 1062 858 927 987 1060 1076 1007 990 891 785 698 659 660 658 715 718 806 723 727 870 790 938 954 817 780 687 594 657 761 756 628
1148 1152 822 720 758 977 1045 1204 1233 1203 1101 1018 1041 1086 1091 1035 1059 919 995 953 859 815 779 813 888 828 843 936 1010 1077 1030 853 993 1087 1040 1002 1046 907 961 893 831 762
1054 865 680 778 951 1065 775 1028 1219 1272 1101 1115 1088 1141 1148 1033 966 906 1065 922 976 960 926 935 942 1133 1136 1015 974 994 940 1000 1123 1172 1229 1242 1263 1035 787 512 483 657
929 932 739 853 787 716 725 1049 1125 1299 1319 1165 917 969 828 757 948 1124 1176 1250 1067 1009 1202 1124 1113 1118 0 0 11 745 1076 941 1093 1193 1129 1279 1136 989 971 700 650 667
829 816 928 747 812 552 960 1111 1101 1171 820 650 712 804 664 693 594 1045 953 1005 955 1063 1144 1179 1050 277 19 5 12 0 649 871 654 602 687 729 824 1186 1071 980 1227 906
875 615 536 846 920 1003 1007 966 940 995 946 985 1025 1127 1020 961 955 958 1044 1101 1176 1162 1206 1114 343 102 0 0 0 0 0 537 614 468 510 388 382 300 274 383 298 353
1088 977 919 865 844 751 837 742 866 1112 1230 1014 1028 926 821 967 1052 983 993 1036 985 755 444 61 24 0 0 0 0 0 0 149 528 743 464 468 574 396 251 166 144 109
670 730 738 734 696 746 739 753 989 965 808 855 849 806 862 954 1233 1029 646 433 257 85 53 21 4 0 0 0 0 0 0 103 489 682 670 627 697 694 642 367 279 184
35 66 149 279 330 295 562 783 1031 1065 936 812 855 709 666 534 360 142 123 57 39 10 5 10 0 0 0 0 0 0 0 18 420 584 421 551 630 660 597 498 431 336
3 8 25 60 84 97 104 138 180 179 156 107 114 119 100 72 14 2 6 4 0 0 0 0 0 0 0 0 0 0 0 592 198 272 238 236 361 433 318 283 311 308
0 0 2 10 13 19 28 53 92 107 64 36 38 20 5 1 17 5 0 0 0 2 1 0 2 0 0 0 0 0 39 10 0 0 17 110 230 225 132 19 6 33
0 0 0 0 1 2 10 28 25 20 29 7 7 4 3 8 1 0 2 4 11 28 18 22 15 0 0 0 0 0 0 358 0 0 0 0 54 44 4 0 0 0
0 0 0 0 0 7 24 53 51 27 31 29 22 5 11 4 0 5 20 25 53 121 3 128 54 0 0 0 0 0 0 120 0 0 0 0 0 0 0 0 0 0
0 0 0 0 0 0 0 0 20 276 118 79 55 10 31 0 0 0 13 2 58 51 50 106 68 26 0 0 0 0 0 3 0 0 0 0 0 0 0 0 0 0

ECMWFNIL_con_mucape_051.txt.gz
CAPE
831 842 439 196 159 156 180 59 0 0 0 0 0 0 0 0 0 0 0 0 0 0 0 0 0 0 0 0 0 0 0 0 0 0 0 0 0 0 0 0 0 0
877 813 512 302 170 157 190 86 14 1 1 0 0 0 0 0 0 0 0 0 0 0 0 0 0 0 0 0 0 0 0 0 0 0 0 0 0 0 0 0 0 0
1063 1088 902 604 414 448 371 200 47 7 21 14 6 0 0 5 0 0 0 0 0 0 0 0 0 0 0 0 0 0 0 0 0 0 0 0 0 0 0 0 0 0
1246 1188 1147 890 820 910 662 390 78 71 180 58 13 7 25 16 15 15 6 0 0 1 6 17 0 0 0 0 0 0 0 0 0 0 0 0 0 0 0 0 0 0
1277 1252 1040 684 359 353 299 424 392 245 150 77 37 24 35 58 29 25 9 15 18 18 59 20 22 26 33 5 0 0 0 1 1 0 0 0 0 0 0 0 0 0
1276 1130 941 1022 391 137 21 30 44 39 38 104 61 36 41 45 36 33 55 54 42 72 76 74 82 115 58 65 88 98 21 0 1 0 0 0 0 0 0 0 0 0
1249 910 1015 1108 859 282 122 87 0 0 14 107 44 48 66 53 54 82 98 112 145 100 168 214 212 185 142 173 115 167 137 51 56 8 2 0 0 0 0 0 0 0
1088 998 1223 1211 1277 630 74 70 17 0 36 276 58 55 72 79 62 117 165 200 145 213 258 257 293 308 380 336 282 262 252 209 154 78 203 30 87 2 0 0 0 0
1109 1210 1452 1378 1315 823 159 18 86 44 50 201 242 213 94 88 86 177 134 216 246 300 318 371 408 433 542 527 492 491 383 426 376 291 201 274 157 106 132 13 0 0
1543 1499 1483 1339 1545 936 598 130 276 249 177 200 142 341 314 206 204 163 178 254 321 353 332 416 502 599 611 647 521 630 602 430 487 439 426 335 425 299 168 172 342 210
1514 1524 1463 1268 1358 972 841 453 203 238 326 157 39 49 62 190 260 229 252 242 336 308 328 356 472 518 670 619 842 611 698 664 510 458 698 658 652 520 457 548 554 513
1511 1702 1799 1576 1212 1119 897 522 342 354 414 215 140 130 201 186 272 171 242 269 463 506 538 383 310 311 353 390 667 760 693 778 596 726 693 701 675 817 602 521 797 414
1473 1690 1686 1609 1644 1462 1232 914 578 498 288 205 253 230 243 253 224 419 529 568 628 680 689 640 615 520 604 774 716 496 716 691 850 632 859 724 776 672 554 709 690 703
1120 1254 1597 1495 1325 883 841 562 705 913 619 216 328 386 481 650 377 570 798 718 875 697 582 562 649 715 771 824 750 711 725 843 837 975 844 879 1019 828 620 699 699 774
1114 744 984 699 710 701 723 887 1027 874 706 738 509 434 958 566 648 622 843 1002 865 733 626 745 908 760 819 742 1106 821 858 991 1020 687 546 413 272 63 540 810 938 841
1054 863 788 612 595 674 735 931 940 1016 624 399 548 624 456 370 312 209 385 536 547 677 786 1117 743 405 761 748 556 520 497 578 553 949 767 631 78 344 574 877 906 826
1018 827 746 620 564 284 448 554 631 861 593 371 340 342 515 413 249 491 753 347 89 24 380 585 652 684 625 289 6 104 786 816 605 558 714 604 352 503 558 684 928 810
807 742 786 713 524 387 497 716 663 392 436 334 354 466 471 548 491 411 581 738 451 393 360 436 510 369 0 0 0 0 230 897 476 387 336 133 274 212 332 468 726 431
1038 693 718 962 957 594 627 469 520 513 428 402 380 512 457 354 314 483 633 524 611 538 373 379 0 0 0 0 0 0 0 339 101 69 9 139 89 52 74 39 8 18
1218 1101 1102 1113 992 1053 775 609 293 468 608 681 486 585 444 517 744 958 854 414 391 359 7 0 0 0 0 0 0 0 0 202 67 1 19 22 22 22 20 21 21 7
368 335 564 623 848 822 816 877 616 682 494 412 597 444 647 809 744 577 767 403 54 54 0 0 0 0 0 0 0 0 0 38 95 9 2 10 27 261 88 121 78 138
10 20 80 178 275 371 420 477 602 432 533 620 472 585 288 121 192 95 90 58 11 0 0 0 0 0 0 0 0 0 0 16 107 2 12 26 60 95 72 153 280 213
4 9 3 20 2 14 64 175 219 159 203 185 224 128 92 44 61 27 8 6 1 0 0 0 0 0 0 0 0 0 0 654 0 5 25 19 57 85 140 19 0 4
0 1 2 8 9 16 15 8 13 9 11 3 16 8 10 4 4 0 0 0 0 2 0 0 0 0 0 0 0 0 0 252 30 0 0 2 0 5 10 0 0 0
0 0 3 0 2 10 28 4 0 0 0 0 0 0 0 1 0 0 0 0 0 2 0 6 0 2 0 0 0 0 0 145 75 0 1 0 6 0 0 0 0 0
1 1 0 0 0 0 6 0 0 0 62 6 20 0 0 0 0 0 0 0 0 6 2 3 7 0 0 0 0 0 0 0 3 0 6 4 0 2 4 0 0 0

ECMWFNIL_con_mucape_054.txt.gz
CAPE
884 798 605 667 495 468 449 241 56 131 71 64 0 0 4 9 0 0 0 0 0 0 0 0 0 0 0 0 0 0 0 0 0 0 0 0 0 0 0 0 0 0
866 993 288 555 450 431 614 286 105 210 227 74 4 11 1 0 0 0 0 0 0 0 0 0 0 0 0 0 0 0 0 0 0 0 0 0 0 0 0 0 0 0
970 953 550 554 466 692 522 370 387 290 185 89 108 14 8 14 0 0 9 6 3 2 0 0 0 0 0 0 0 0 0 0 0 0 0 0 0 0 0 0 0 0
987 1162 1232 864 751 680 526 401 364 336 350 185 29 29 26 14 35 36 31 43 21 14 3 8 5 0 0 0 0 0 0 0 0 0 0 0 0 0 0 0 0 0
1091 1113 1164 996 834 637 340 202 229 475 353 202 121 51 60 100 92 40 27 60 82 55 67 35 15 3 2 0 0 2 4 2 0 0 0 0 0 0 0 0 0 0
1220 1070 876 825 923 712 481 230 372 474 447 279 195 110 229 178 137 37 46 70 104 107 98 64 56 60 22 26 38 21 30 4 12 1 0 0 3 0 0 0 0 0
1239 1186 946 531 410 474 507 501 445 328 331 323 104 196 271 176 100 64 44 71 76 80 73 146 167 233 141 252 211 297 46 4 30 3 0 0 0 0 0 0 0 0
1248 1227 1218 707 278 245 248 242 203 138 311 228 162 245 139 141 72 142 115 74 85 74 189 138 257 148 225 200 110 260 173 80 65 100 87 1 47 1 0 0 0 1
1248 1170 957 1256 472 394 246 56 122 164 288 320 166 283 232 193 124 256 220 167 167 284 161 251 232 372 493 536 404 303 275 366 312 274 187 81 161 33 12 7 5 0
778 1304 1037 762 1363 376 328 152 162 176 274 526 102 201 171 308 354 188 264 302 264 309 346 292 396 565 553 585 520 518 546 435 441 438 361 498 306 206 132 98 181 137
898 726 575 653 734 532 411 276 281 189 163 306 458 480 199 292 317 217 284 262 457 330 276 312 366 447 568 648 854 626 649 663 559 478 564 504 597 398 425 316 262 336
684 563 547 463 537 362 451 463 431 394 369 312 302 292 335 450 359 219 329 370 358 265 197 343 586 826 650 687 688 837 906 768 792 687 518 326 176 267 75 72 488 449
552 491 357 236 400 309 495 1030 744 504 503 402 248 186 253 255 306 264 474 349 90 191 200 205 203 319 643 749 622 602 662 316 136 306 181 262 114 283 141 265 88 434
571 355 494 329 604 440 394 715 635 859 769 528 698 755 569 314 409 472 465 241 71 275 108 53 84 16 629 667 684 458 373 235 118 90 101 168 393 182 272 189 264 459
613 444 392 330 550 624 524 536 890 757 411 549 525 446 426 286 193 424 546 314 141 41 162 174 132 333 0 0 74 405 360 372 322 283 238 233 311 380 330 253 451 405
495 362 542 741 729 769 728 543 519 612 618 430 404 340 210 170 233 228 266 360 111 136 111 30 277 295 324 387 479 515 452 391 62 406 358 314 83 95 350 461 552 653
461 506 522 556 581 479 496 509 626 490 426 506 378 406 444 583 519 615 578 284 151 212 42 168 512 0 280 390 541 589 635 592 597 505 318 220 42 184 599 709 748 624
531 484 456 448 338 358 351 339 388 572 608 576 577 514 633 536 658 478 426 423 386 352 400 290 50 373 372 325 0 0 159 479 608 548 466 290 121 408 607 659 734 683
468 517 526 530 555 507 531 464 402 507 614 588 531 769 630 552 403 554 363 322 365 379 307 191 36 372 301 0 0 0 162 69 56 538 416 333 612 688 419 547 463 370
268 399 496 539 490 567 683 539 525 574 688 578 559 599 636 598 582 448 243 252 438 401 240 120 295 0 0 0 0 0 0 0 30 1 117 28 46 182 188 232 192 225
434 396 466 492 466 523 511 542 517 488 638 656 608 651 587 496 481 454 323 292 357 243 0 0 0 0 0 0 0 0 0 0 0 0 0 22 126 21 155 222 193 240
162 261 358 492 456 414 536 413 471 574 670 779 837 709 748 616 502 608 558 376 335 0 0 0 0 0 0 0 0 0 0 0 123 2 93 48 88 15 0 0 0 0
3 4 49 112 156 328 534 544 673 744 599 528 721 686 742 674 607 478 378 295 78 0 0 0 0 0 0 0 0 0 0 29 367 116 1 34 17 0 0 0 0 0
0 0 6 15 24 57 111 316 421 482 420 363 462 354 356 320 222 146 122 90 0 0 0 0 0 0 0 0 0 0 0 0 35 17 4 1 0 0 0 0 0 0
0 0 0 7 6 85 212 134 36 23 127 203 123 41 48 48 18 26 15 16 6 0 0 0 0 0 0 0 0 0 0 0 0 0 0 4 0 0 0 0 0 0
0 0 0 0 14 69 36 23 26 12 44 50 40 8 5 2 1 2 8 2 19 0 0 0 0 0 0 0 0 0 0 0 0 4 37 0 0 0 0 0 0 0

ECMWFNIL_con_mucape_057.txt.gz
CAPE
19 6 7 3 0 0 0 0 0 0 0 0 0 0 0 0 0 0 0 0 0 0 0 0 0 0 0 0 0 0 0 0 0 0 0 0 0 0 0 0 0 0
38 15 16 0 0 0 0 0 0 0 0 0 0 0 0 0 0 0 0 0 0 0 0 0 0 0 0 0 0 0 0 0 0 0 0 0 0 0 0 0 0 0
45 1 5 0 0 1 0 0 0 0 0 0 0 0 0 0 0 0 0 0 0 0 0 0 0 0 0 0 0 0 0 0 0 0 0 0 0 0 0 0 0 0
35 0 1 0 10 4 0 0 0 0 0 0 0 0 0 0 0 0 0 0 0 0 0 0 0 0 0 0 0 0 0 0 0 0 0 0 0 0 0 0 0 0
304 140 40 19 20 0 0 0 0 0 0 0 0 0 0 0 0 0 0 0 0 0 0 0 0 0 0 0 0 0 0 0 0 0 0 0 0 0 0 0 0 0
585 424 156 30 4 0 0 11 1 0 0 0 0 0 0 0 0 0 0 0 0 0 0 0 0 0 0 0 0 0 0 0 0 0 0 0 0 0 0 0 0 0
507 430 312 115 31 10 34 54 24 6 1 1 4 4 0 0 0 0 0 0 0 0 0 0 7 6 3 4 2 0 0 0 0 0 0 0 0 0 0 0 0 0
629 459 344 158 112 72 117 91 47 38 13 6 19 9 1 0 0 0 0 0 0 0 1 24 25 6 36 1 0 5 42 96 6 0 0 0 0 0 0 0 0 0
762 608 400 414 278 143 73 64 33 50 21 18 18 12 4 0 0 2 0 0 1 2 4 29 17 19 71 5 8 31 58 18 10 0 0 3 14 1 0 0 0 0
543 569 315 190 222 5 19 10 14 45 16 15 26 10 12 1 2 10 3 3 3 10 6 24 53 100 298 72 76 93 238 162 199 207 205 0 0 2 8 35 23 3
523 624 462 101 18 24 0 15 18 78 27 4 17 4 10 17 2 4 8 8 1 0 0 0 174 326 379 341 358 379 337 251 246 246 230 136 0 26 90 46 26 76
76 375 211 1 27 70 159 39 0 10 28 12 30 0 5 10 0 4 0 0 0 0 0 0 199 292 457 443 393 393 458 342 129 64 193 200 223 6 10 29 5 254
585 409 471 83 0 119 286 442 70 0 12 21 144 10 16 10 0 0 0 0 0 0 0 2 3 173 356 383 412 409 468 388 0 0 2 13 28 19 50 44 10 55
681 728 678 562 136 319 461 649 518 87 71 105 174 129 25 0 0 0 0 0 0 0 1 0 0 23 119 173 367 381 380 371 304 0 4 7 0 26 39 36 39 116
591 624 629 64 470 289 451 678 516 279 189 137 45 12 13 14 4 0 0 0 0 0 0 0 2 0 0 0 44 14 25 21 5 0 0 0 0 0 30 10 44 90
615 591 521 399 79 243 366 546 544 398 48 1 2 0 0 0 0 0 0 0 0 0 0 0 0 0 0 0 0 7 0 0 0 0 0 0 0 0 34 20 12 30
624 544 446 289 345 391 58 531 559 404 310 252 0 4 31 33 34 6 0 0 0 0 0 0 0 0 0 0 269 358 302 0 0 0 1 0 0 0 4 181 262 358
528 473 420 372 462 574 416 243 461 488 430 325 232 157 210 354 87 13 0 0 0 0 0 0 0 0 0 0 260 259 0 0 0 18 6 0 0 0 14 282 425 411
372 406 458 484 524 568 612 455 440 484 474 463 430 330 389 416 373 26 3 0 0 0 0 0 0 0 0 0 0 0 0 19 331 309 38 4 0 0 168 395 394 531
331 404 470 480 511 482 490 443 391 328 361 368 451 528 452 372 342 0 0 0 0 0 0 0 0 0 0 0 0 0 0 0 0 4 22 24 12 46 382 411 459 439
26 60 300 409 460 389 398 432 379 402 389 448 548 496 426 382 372 329 66 56 50 0 0 0 0 0 0 0 0 0 0 0 0 0 0 0 0 0 0 0 151 423
21 224 374 458 516 517 520 481 450 409 372 347 419 443 386 310 307 80 223 158 156 0 0 0 0 0 0 0 0 0 0 0 0 0 0 0 0 0 0 0 0 146
86 242 362 354 565 572 507 490 499 435 520 449 415 423 94 101 278 332 330 323 293 187 0 0 0 0 0 0 0 0 0 0 0 0 0 0 0 0 0 0 0 0
0 0 70 258 485 540 450 415 382 527 608 668 580 532 531 388 325 478 281 274 34 0 0 0 0 0 0 0 0 0 0 0 0 0 0 0 0 0 0 0 0 0
0 0 0 0 0 133 318 450 570 635 593 568 555 596 593 514 459 473 230 99 0 0 0 0 0 0 0 0 0 0 0 0 0 0 0 0 0 0 0 0 0 0
0 0 0 0 0 0 0 9 295 392 384 459 539 443 386 423 322 363 74 0 0 0 0 0 0 0 0 0 0 0 0 0 0 0 0 0 0 0 0 0 0 0

ECMWFNIL_con_mucape_060.txt.gz
CAPE
264 224 170 166 7 0 0 0 0 0 0 0 0 0 0 0 0 0 0 0 0 0 0 0 0 0 0 0 0 0 0 0 0 0 0 0 0 0 0 0 0 0
504 501 406 75 46 153 154 17 0 0 0 0 0 0 0 0 0 0 0 0 0 0 0 0 0 0 0 0 0 0 0 0 0 0 0 0 0 0 0 0 0 0
646 605 191 102 130 153 143 54 0 0 0 0 0 0 0 0 0 0 0 0 0 0 0 0 0 0 0 0 0 0 0 0 0 0 0 0 0 0 0 0 0 0
447 153 10 119 140 137 32 0 0 0 0 0 0 0 0 0 0 0 0 0 0 0 0 0 0 0 0 0 0 0 0 0 0 0 0 0 0 0 0 0 0 0
160 76 4 162 109 0 22 0 0 0 0 0 0 0 0 0 0 0 0 0 0 0 0 0 0 0 0 0 0 0 0 0 0 0 0 0 0 0 0 0 0 0
186 179 42 136 112 94 106 15 0 0 0 0 0 0 0 0 0 0 0 0 0 0 0 0 0 0 0 0 0 0 0 0 0 0 0 0 0 0 0 0 0 0
288 237 170 16 0 134 90 0 0 0 0 0 0 0 0 0 0 0 0 0 0 0 0 0 0 0 0 0 0 0 0 0 0 0 0 0 0 0 0 0 0 0
338 35 1 8 124 92 58 8 36 31 30 6 2 1 0 0 0 0 0 0 0 0 0 0 0 0 0 0 0 0 0 0 0 0 0 0 0 0 0 0 0 0
17 5 36 188 145 94 80 48 53 54 48 14 10 13 11 0 0 0 0 0 0 0 0 0 0 0 0 0 0 0 0 0 0 0 0 0 0 0 0 0 0 0
310 12 50 129 88 80 60 54 51 50 16 11 7 11 14 7 5 6 0 0 0 0 0 0 0 0 0 0 0 0 0 0 0 0 0 0 0 0 0 0 0 0
354 146 18 45 76 86 88 65 61 72 51 41 21 7 11 48 53 68 8 0 2 1 1 3 21 57 12 0 0 0 0 0 0 0 0 0 0 0 16 0 0 0
280 156 293 282 133 192 182 141 102 95 110 18 3 7 93 75 78 93 128 139 157 154 163 240 227 222 192 91 0 163 0 0 0 0 0 0 0 0 0 0 0 0
311 208 280 287 100 41 101 48 56 15 50 96 70 73 75 72 75 148 172 170 181 202 247 360 356 346 349 322 281 282 248 0 175 0 0 0 0 0 0 0 0 240
412 328 378 147 0 78 0 11 6 0 0 61 0 0 4 41 121 180 232 230 227 234 297 417 472 464 443 415 415 422 426 301 259 0 0 0 0 0 0 0 44 181
42 334 290 14 260 364 304 66 3 0 0 0 0 0 0 130 179 177 213 248 232 235 254 247 336 429 495 495 473 448 433 406 375 224 0 0 0 0 0 0 0 40
0 158 156 0 0 429 385 217 0 0 0 0 0 0 0 15 160 187 176 207 232 218 230 123 0 155 296 282 327 418 448 403 268 158 0 0 0 0 0 0 0 0
0 410 592 614 412 321 433 398 0 0 0 0 0 219 176 192 215 232 209 56 15 16 183 188 0 0 0 0 0 15 20 126 0 0 0 0 0 0 0 0 0 0
255 442 603 741 541 38 424 503 242 0 0 0 0 117 241 217 136 136 143 27 32 30 19 37 0 0 0 0 0 0 25 158 142 0 0 0 0 0 0 0 0 0
504 541 588 698 636 300 377 522 479 352 249 213 217 210 226 204 27 17 236 234 231 228 153 26 10 192 0 0 0 172 353 322 169 0 0 0 0 0 0 0 251 329
725 687 600 517 525 478 372 427 554 488 399 337 307 309 282 206 131 149 180 242 233 225 221 201 188 168 88 0 0 0 113 0 0 0 0 0 0 0 0 422 433 414
422 524 529 441 462 485 522 539 442 439 436 415 376 371 342 303 255 287 297 238 211 215 195 207 162 122 0 0 0 0 0 0 0 0 206 0 0 0 38 462 507 499
331 393 374 411 297 124 414 454 476 474 437 392 379 402 383 359 356 378 376 340 306 258 162 0 0 0 0 116 0 0 0 0 0 0 0 0 0 0 369 476 525 504
219 248 249 339 368 326 304 259 298 102 351 364 402 459 466 428 411 407 386 161 306 307 292 278 246 201 133 0 0 0 0 0 0 0 0 0 0 0 255 402 543 554
118 142 166 238 371 431 405 393 406 406 412 383 333 413 453 413 385 330 280 225 188 209 206 174 166 197 186 0 0 0 0 0 0 0 0 0 0 0 0 199 358 545
4 1 0 0 0 0 0 109 280 384 391 462 425 335 317 282 268 276 262 249 258 271 253 145 171 185 0 0 0 0 0 0 0 0 0 0 0 0 0 143 226 321
0 0 0 0 0 0 0 0 6 0 43 505 585 608 507 454 398 306 328 262 233 286 148 124 153 75 0 0 0 0 0 0 0 0 0 0 0 0 0 92 124 135

ECMWFNIL_con_mucape_063.txt.gz
CAPE
464 389 216 176 178 149 107 102 0 0 0 0 0 0 0 0 0 0 0 0 0 0 0 0 0 0 0 0 0 0 0 0 0 0 0 0 0 0 0 0 0 0
491 304 126 158 188 168 131 43 0 0 0 0 0 0 0 0 0 0 0 0 0 0 0 0 0 0 0 0 0 0 0 0 0 0 0 0 0 0 0 0 0 0
368 93 102 132 163 173 166 53 0 0 0 0 0 0 0 0 0 0 0 0 0 0 0 0 0 0 0 0 0 0 0 0 0 0 0 0 0 0 0 0 0 0
165 97 244 211 166 168 50 0 0 0 0 0 0 0 0 0 0 0 0 0 0 0 0 0 0 0 0 0 0 0 0 0 0 0 0 0 0 0 0 0 0 0
390 431 478 446 219 43 0 0 28 16 0 0 0 0 0 0 0 0 0 0 0 0 0 0 0 0 0 0 0 0 0 0 0 0 0 0 0 0 0 0 0 0
612 591 610 434 107 81 106 131 77 0 0 0 0 0 0 0 0 0 0 0 0 0 0 0 0 0 0 0 0 0 0 0 0 0 0 0 0 0 0 0 0 0
692 649 441 109 95 119 111 71 3 0 0 0 0 0 0 0 0 0 0 0 0 0 0 0 0 0 0 0 0 0 0 0 0 0 0 0 0 0 0 0 0 0
638 413 13 0 0 80 4 56 0 0 0 0 0 0 0 0 0 0 0 0 0 0 0 0 0 0 0 0 0 0 0 0 0 0 0 0 0 0 0 0 0 0
368 210 0 0 0 0 69 62 0 0 0 0 0 0 0 0 0 0 0 0 0 0 0 0 0 0 0 0 0 0 0 0 0 0 0 0 0 0 0 0 0 0
252 162 0 0 0 25 95 38 0 0 0 0 0 0 0 0 0 0 0 0 0 0 0 0 0 0 0 0 0 0 0 0 0 0 0 0 0 0 0 0 0 0
0 80 98 0 36 107 0 0 0 0 0 0 0 0 0 0 0 0 0 0 0 0 0 0 0 0 0 0 0 0 0 0 0 0 0 0 0 0 0 0 0 0
0 33 0 0 52 0 0 0 0 0 0 0 0 0 0 0 0 0 0 0 0 0 0 0 0 0 0 0 0 0 0 0 0 0 0 0 0 0 0 0 0 0
202 50 29 60 42 11 0 0 0 0 0 0 0 0 0 0 0 0 0 0 0 0 0 0 0 0 0 0 0 0 0 0 0 0 0 0 0 0 0 0 0 0
214 23 28 33 6 0 0 0 0 0 0 0 0 0 0 0 0 0 0 0 0 0 0 0 0 48 0 0 0 0 0 0 0 0 0 0 0 0 0 0 0 0
118 65 35 15 0 0 0 0 0 36 0 0 0 0 0 0 0 0 0 0 0 0 0 42 126 149 149 0 172 254 1 181 161 154 163 167 155 85 0 0 0 0
199 51 0 0 0 0 0 46 63 30 0 0 0 0 0 0 0 0 0 0 0 0 0 0 155 258 281 329 372 389 320 370 376 293 247 134 0 118 200 196 106 0
227 105 62 86 64 82 115 93 74 0 0 0 0 0 0 0 0 0 0 0 0 0 0 82 323 378 391 418 472 486 477 488 484 482 460 403 294 216 0 0 0 0
110 145 74 106 136 33 25 48 48 0 0 0 0 0 0 0 0 0 0 0 0 106 223 267 382 461 496 511 506 508 489 459 451 462 464 413 271 27 0 0 0 0
14 56 7 113 120 174 124 6 0 0 0 0 0 0 0 0 0 0 0 0 0 0 0 50 221 0 166 258 299 283 259 236 241 245 236 210 0 0 0 0 0 0
235 272 367 296 156 212 278 260 210 0 0 0 0 0 0 0 0 0 0 0 0 121 0 0 0 0 181 162 84 83 95 0 0 253 294 276 189 0 0 0 0 0
3 213 221 193 76 0 32 156 235 247 185 0 0 0 0 0 0 0 0 0 0 5 5 54 23 12 12 12 6 50 154 159 338 379 334 123 0 0 0 0 0 192
145 266 184 162 156 30 0 0 32 244 0 184 0 0 0 0 0 0 229 215 5 0 37 64 12 15 19 152 193 199 48 266 349 360 286 0 197 0 0 0 160 264
83 178 291 263 238 250 192 178 168 209 53 0 0 0 0 4 7 0 0 0 8 0 0 0 1 8 130 192 170 0 0 0 292 278 0 39 193 0 0 0 425 515
7 36 84 101 82 106 130 184 195 178 169 229 36 0 0 199 274 202 92 198 292 347 215 145 190 250 241 212 13 0 0 301 295 248 0 0 0 0 0 223 498 555
0 14 75 49 0 1 0 12 48 98 172 190 231 218 181 265 304 415 332 373 359 336 307 264 259 238 142 103 0 187 275 248 231 216 0 0 0 0 44 303 549 618
2 1 3 0 0 0 0 0 0 0 0 0 155 257 316 343 289 229 196 9 0 0 0 0 0 0 0 0 0 201 177 168 156 10 0 0 0 0 137 278 555 688

ECMWFNIL_con_mucape_069.txt.gz
CAPE
671 732 671 697 732 678 560 392 274 290 244 182 172 80 192 109 17 72 42 34 89 47 6 4 0 0 0 0 0 0 0 0 0 0 2 58 217 386 513 429 721 838
660 565 390 463 407 372 453 458 317 306 169 127 118 19 20 16 10 22 24 48 12 4 0 0 0 0 0 0 0 0 0 0 0 0 0 0 0 16 69 234 544 609
501 497 383 383 360 358 350 310 278 278 154 42 13 11 0 5 5 29 86 41 1 0 0 0 0 0 0 0 0 0 0 0 0 0 0 0 0 0 1 13 154 413
662 594 497 401 349 304 291 310 342 304 22 0 8 1 0 0 25 9 9 2 2 0 0 0 0 0 0 0 0 0 0 0 0 0 0 0 0 0 0 42 123 202
584 578 548 405 182 84 54 47 300 208 50 67 1 0 0 0 25 30 16 0 2 0 0 0 0 0 0 0 0 0 0 0 0 0 0 0 0 0 0 69 315 381
726 718 575 238 45 9 15 29 44 18 40 25 27 0 14 42 31 18 8 0 0 0 0 0 0 0 0 0 0 0 0 0 0 0 0 0 0 0 0 42 227 343
912 834 660 274 42 76 88 47 16 22 61 82 2 0 4 32 52 41 4 0 0 0 0 0 0 0 0 0 0 0 0 0 0 0 0 0 0 0 0 1 45 136
894 870 678 306 82 81 84 25 25 44 76 2 22 1 43 54 39 36 6 0 0 0 0 0 0 0 0 0 0 0 0 0 0 0 0 0 9 0 0 0 59 87
706 737 582 249 99 118 49 14 57 38 1 42 38 15 37 53 38 27 2 0 0 0 0 0 0 0 1 0 1 0 0 0 4 2 2 6 10 0 0 1 11 50
610 596 511 181 236 244 184 70 24 7 2 58 28 23 4 29 22 1 0 0 0 0 0 0 0 0 0 0 0 0 0 0 0 0 4 7 0 0 0 1 4 10
649 678 529 249 334 307 170 14 0 8 0 10 59 45 33 1 0 0 0 0 0 0 0 0 1 0 0 6 18 20 4 20 5 0 1 6 76 62 36 14 45 17
762 702 370 331 441 318 50 0 0 7 3 12 14 13 13 1 0 0 0 0 0 0 0 2 9 22 5 11 19 29 46 91 109 115 32 8 97 159 70 190 105 37
731 566 279 336 300 246 4 0 0 3 1 2 6 14 0 0 0 1 20 8 1 18 19 34 46 70 133 204 121 95 100 120 152 204 239 299 266 233 253 323 242 162
543 346 176 351 77 0 0 0 0 0 1 6 9 21 11 1 0 0 0 38 88 71 117 138 165 193 235 274 261 306 292 322 259 310 459 534 520 474 664 538 354 282
506 429 233 2 0 0 1 0 10 4 0 0 1 7 14 12 0 0 0 2 35 235 250 466 530 560 444 471 376 389 523 506 407 352 445 589 525 545 579 608 468 466
392 382 78 120 57 0 8 3 0 0 2 2 3 3 3 0 0 0 15 58 69 61 188 323 474 454 84 20 139 436 670 650 603 507 466 525 622 638 594 588 763 816
383 268 67 77 23 15 0 28 0 0 0 6 12 3 7 2 2 1 15 50 77 99 106 171 299 202 0 0 0 1 495 735 613 632 600 588 641 668 705 820 733 494
112 90 52 122 125 59 11 5 1 0 2 11 5 1 0 1 11 10 9 31 76 93 184 234 316 0 0 0 0 0 16 563 738 711 709 684 680 670 770 804 740 717
14 8 99 105 58 13 16 1 21 0 0 0 0 0 8 40 43 35 61 90 100 88 121 91 266 55 65 16 6 7 64 151 453 607 668 744 767 748 718 716 707 700
4 3 2 1 1 9 16 11 15 9 5 1 10 19 40 56 47 64 37 53 65 84 89 83 243 69 83 99 114 122 132 145 106 340 540 662 703 704 775 745 738 694
0 0 11 19 5 49 8 12 5 11 14 2 22 50 52 71 97 79 65 50 55 86 166 216 123 0 44 74 81 0 0 0 36 57 297 350 402 433 512 568 583 554
20 4 2 7 1 0 0 0 8 7 4 0 16 36 57 72 54 110 88 52 41 52 139 222 29 0 0 0 0 0 0 0 0 55 94 140 229 224 231 359 419 462
18 33 36 14 0 0 0 0 0 0 0 26 60 118 117 70 4 8 23 59 38 60 115 90 58 0 0 0 0 0 0 0 0 0 0 148 153 145 138 185 313 340
5 12 6 6 1 0 0 0 0 0 0 0 1 1 0 0 0 0 1 3 5 3 2 13 4 0 0 0 10 13 0 0 0 0 17 153 163 134 54 100 170 4
4 4 8 7 9 0 9 0 0 0 14 11 12 0 41 47 0 0 0 1 0 0 0 0 0 0 0 0 0 0 0 0 0 0 0 11 14 37 29 34 122 33
0 2 7 5 1 4 1 0 0 1 0 13 1 3 40 5 2 1 0 12 32 65 0 0 0 1 0 0 0 0 0 0 0 0 4 148 150 138 120 144 37 65

ECMWFNIL_con_mucape_072.txt.gz
CAPE
1667 1756 1834 1352 1050 1102 1172 998 663 466 391 385 402 446 387 633 564 644 747 704 651 519 310 183 141 234 250 240 214 89 174 552 513 668 1082 1370 1258 1405 1528 1488 1474 1309
1540 1416 1324 1044 994 1237 1291 851 552 481 528 390 376 389 494 648 780 682 608 585 295 177 146 170 148 102 78 38 124 83 106 286 296 272 615 574 309 773 1030 1156 1411 1382
1429 1201 1024 1026 1198 1436 1342 992 637 506 552 525 572 498 555 621 730 663 540 227 36 91 178 99 76 49 16 6 59 19 52 126 91 107 73 43 77 45 438 858 1160 1171
1351 1146 891 876 932 931 869 854 795 778 689 564 432 481 563 692 637 644 383 50 19 98 116 86 108 49 0 0 0 0 1 0 11 18 8 2 4 30 304 728 926 1168
1390 1086 930 850 959 979 949 906 894 786 560 400 513 412 330 492 584 474 179 118 38 32 36 37 25 88 1 0 0 0 0 0 0 0 0 0 12 106 300 723 1086 1201
1410 1124 982 854 900 1017 1032 1108 963 774 591 581 481 229 363 459 417 210 151 120 45 8 0 0 0 14 43 0 0 0 0 0 0 0 0 0 0 34 41 339 805 1052
1508 1238 1074 826 913 1044 878 697 739 731 524 335 228 282 405 421 291 119 62 63 35 0 0 0 0 2 59 0 0 1 0 0 0 0 0 0 0 9 46 78 123 499
1685 1341 1220 789 985 1010 811 754 670 654 489 258 139 292 348 263 158 102 66 33 0 0 0 0 0 0 18 6 0 0 0 0 0 0 0 0 0 0 26 60 223 109
1597 1403 1204 1030 1039 856 783 667 665 636 438 211 127 120 197 193 150 143 82 11 1 0 0 0 0 0 0 0 0 0 0 0 0 0 0 0 0 0 0 17 50 213
1566 1335 1148 1088 1039 804 736 688 708 581 292 186 126 91 65 76 160 76 42 15 2 0 0 0 0 2 1 0 0 0 0 0 0 5 4 0 0 0 0 1 33 54
1514 1395 1220 1147 958 719 758 666 661 422 232 194 159 101 66 87 47 42 23 16 4 0 0 0 0 0 2 2 3 3 1 0 0 3 7 5 3 0 0 1 2 10
1134 960 730 914 974 862 893 682 475 359 272 236 151 65 80 8 5 11 12 21 0 0 0 0 0 0 2 2 7 22 24 23 10 7 3 2 7 2 1 1 1 4
410 399 746 438 649 1072 992 572 378 360 265 169 68 86 96 30 0 1 1 0 0 0 0 0 0 2 5 11 8 14 18 26 37 41 34 60 64 56 60 48 17 0
436 313 274 293 270 117 181 543 493 310 191 75 24 72 31 2 0 0 2 4 1 0 0 6 23 32 31 24 15 23 34 76 78 90 81 149 212 196 220 204 206 177
312 309 98 243 70 3 3 14 148 374 313 197 84 52 15 0 0 0 2 10 8 1 0 13 36 62 55 39 53 48 159 213 235 193 202 192 212 263 298 300 266 311
323 236 128 22 183 92 154 106 102 105 76 168 195 147 113 41 4 2 4 12 27 182 260 186 160 256 797 0 134 425 214 251 362 376 325 317 289 317 394 419 410 439
373 316 171 26 139 5 34 29 20 11 24 13 37 106 154 94 88 16 27 51 54 80 115 144 255 389 0 0 0 77 746 389 438 504 568 503 475 477 579 687 716 608
196 89 110 0 25 18 59 21 18 5 0 0 24 57 78 95 133 146 170 167 221 225 398 385 555 49 0 0 0 0 58 510 853 903 906 903 898 936 999 1098 1134 1199
3 4 3 6 4 3 7 14 0 0 0 5 26 57 101 84 92 84 47 115 245 244 411 541 630 0 29 0 0 0 0 246 810 1049 1061 1059 1029 1094 1038 1039 1120 1160
9 10 8 7 6 4 0 2 0 10 29 30 34 52 71 104 104 140 211 131 162 316 342 468 515 50 8 0 0 0 0 29 732 1311 1368 1256 1248 1238 1289 1237 1257 1253
30 10 10 9 8 4 1 1 0 0 4 42 74 59 55 70 182 172 182 160 172 306 443 417 128 41 40 48 56 70 86 87 622 1050 1081 1105 1334 1466 1521 1447 1319 1361
0 3 7 8 7 2 0 7 3 6 19 17 58 96 134 132 136 204 148 255 275 302 402 264 52 0 0 10 16 64 78 84 636 838 749 834 935 1248 1196 1221 1212 1196
10 22 16 31 20 10 6 6 4 6 16 121 167 174 158 127 168 142 92 235 251 282 347 169 22 12 0 0 13 45 63 198 517 567 617 670 639 730 890 863 893 852
8 8 6 2 1 1 1 0 2 2 1 51 131 88 83 76 104 73 110 113 189 90 157 131 89 32 0 13 62 62 58 194 486 586 695 713 624 656 647 646 670 566
1 1 0 0 0 0 0 1 1 4 1 0 0 7 32 36 53 64 56 49 40 27 39 206 20 0 12 39 42 52 62 111 167 432 491 551 644 739 876 742 791 556
4 6 8 7 2 0 2 3 0 0 0 5 7 7 13 9 0 1 5 2 10 48 62 54 49 40 34 38 43 38 0 1 85 379 531 682 794 747 755 824 690 775

ECMWFNIL_con_mucape_075.txt.gz
CAPE
657 528 494 778 900 688 626 587 533 500 550 461 450 552 387 334 335 362 340 232 271 244 225 258 221 196 237 400 212 158 248 448 792 1313 1529 1343 1291 1361 1015 1048 854 899
684 673 871 1015 1047 534 673 775 747 552 638 534 558 568 514 473 336 394 288 278 247 244 216 195 200 246 196 188 235 252 331 376 352 316 778 695 798 994 1026 1290 1126 1220
692 849 971 1113 859 830 855 718 640 569 501 494 452 460 479 482 391 280 297 267 190 177 200 196 244 224 173 139 174 235 326 289 224 212 207 193 212 278 530 785 1304 1250
897 1056 904 790 886 967 773 510 479 546 501 406 320 467 577 441 347 255 307 102 129 124 233 196 207 129 62 75 98 103 121 144 172 187 164 126 163 167 285 568 853 878
1278 1241 704 705 793 731 458 459 476 479 510 523 487 513 490 376 343 268 192 42 93 185 185 182 170 64 26 31 48 65 66 64 54 45 10 18 37 167 310 410 782 1172
958 739 546 574 425 285 288 431 410 472 409 433 407 327 280 294 290 218 92 53 32 74 89 154 164 39 18 30 27 29 8 3 5 0 0 0 0 35 120 349 973 1260
774 647 659 576 379 292 495 533 495 316 389 349 237 242 277 275 371 231 74 44 18 6 19 41 111 68 38 25 21 2 0 0 0 0 0 0 2 37 25 85 194 458
975 790 643 559 553 467 568 520 602 468 334 191 124 284 319 303 348 128 68 12 0 0 0 0 23 132 66 3 6 10 0 0 0 0 0 0 0 22 68 92 197 530
757 1061 658 546 488 465 409 241 508 404 224 186 153 325 267 241 209 60 33 10 0 0 0 0 0 69 57 16 4 0 0 0 0 0 0 0 0 3 18 69 131 289
1049 1121 910 562 305 374 410 339 438 405 239 126 75 162 203 203 138 53 66 16 0 0 0 0 0 10 13 8 0 0 0 0 0 0 0 0 0 0 13 45 97 160
873 563 870 544 437 557 591 522 506 383 230 107 97 32 176 116 112 154 143 16 12 0 0 0 0 0 0 0 0 0 0 0 0 0 0 0 2 0 8 42 59 82
631 556 643 891 469 471 559 514 511 361 260 196 122 11 123 120 225 97 99 46 6 0 0 0 0 0 0 0 0 2 1 1 5 10 7 1 0 0 4 7 31 57
613 651 820 1050 1496 484 458 393 282 317 163 198 120 54 137 30 44 124 18 47 0 0 0 0 0 0 0 3 10 11 12 9 9 14 7 10 14 11 10 10 7 13
474 696 749 870 924 836 514 372 408 389 176 134 71 80 49 0 3 36 13 27 0 0 0 0 0 0 1 9 7 13 27 43 34 38 39 70 112 95 116 109 69 20
614 792 637 541 672 787 726 415 338 310 171 71 40 97 7 2 0 0 0 0 1 0 0 0 0 5 2 2 4 6 23 40 54 52 94 155 255 273 236 221 195 257
373 335 416 380 485 533 518 560 363 269 96 21 8 7 0 0 0 0 0 60 34 10 13 43 28 387 0 0 5 422 211 97 148 167 175 279 233 396 246 235 300 254
295 246 253 250 308 280 452 454 396 372 375 298 77 11 8 0 0 0 0 13 62 236 230 158 385 214 0 0 0 0 507 340 147 212 204 270 298 434 566 356 520 456
283 216 230 212 218 74 96 47 23 25 46 130 250 252 162 149 96 29 13 17 15 39 114 111 421 43 0 0 0 0 0 432 498 463 497 510 507 462 546 659 580 655
265 258 186 215 147 120 0 0 1 3 13 33 78 151 155 114 63 123 297 271 250 153 165 237 238 0 0 0 0 0 0 195 348 579 694 666 630 680 597 489 519 627
39 68 165 154 68 28 23 2 5 12 5 45 114 148 126 163 117 248 226 162 173 198 511 408 196 0 0 0 0 0 0 25 304 316 806 836 646 605 668 577 596 636
12 19 16 28 16 1 10 2 3 4 0 19 84 282 250 203 199 281 204 126 126 162 252 234 108 10 0 0 0 0 0 0 176 658 745 1055 1015 897 647 824 823 674
13 22 21 15 9 3 12 16 3 12 7 1 25 83 148 282 256 303 221 258 229 288 185 252 108 46 28 0 2 44 34 44 143 517 793 586 421 320 83 486 845 968
2 14 5 15 10 17 16 18 55 2 6 5 19 38 82 218 238 239 255 266 299 99 98 207 106 46 26 0 44 48 43 59 167 420 420 310 432 498 608 865 734 717
9 1 22 12 3 4 11 24 9 113 347 265 25 35 103 143 178 208 179 129 111 84 90 120 139 96 61 49 41 51 38 49 134 262 348 480 521 616 681 628 511 352
6 3 5 4 3 4 3 0 0 0 12 44 173 224 124 113 77 143 80 95 74 66 95 116 98 87 77 63 59 65 65 62 69 116 357 336 204 343 431 491 250 222
2 2 1 0 1 1 0 4 0 1 2 0 40 113 109 7 7 17 35 54 50 3 8 8 7 2 9 50 3 51 56 61 48 4 332 154 102 36 76 66 37 0

ECMWFNIL_con_mucape_078.txt.gz
CAPE
1089 1024 1340 1580 1328 1043 791 801 1032 923 832 797 856 825 841 692 783 732 621 502 479 451 462 450 336 266 440 263 104 278 502 906 960 1448 1324 1340 1190 1167 1458 1195 1252 1344
978 1103 786 735 624 794 1104 1074 988 924 892 937 946 874 593 575 563 486 453 487 390 428 301 247 288 330 447 299 394 572 561 841 796 823 1251 1182 1263 1294 1352 1556 1345 1242
1083 909 606 692 878 839 1348 1386 1086 1100 879 1074 1045 769 565 582 651 547 528 390 360 308 286 305 370 328 409 350 549 452 606 670 519 682 696 648 820 1128 1168 1369 1499 1197
1200 1110 898 1138 1428 1382 1343 1112 1012 693 583 641 705 716 581 583 742 626 490 430 279 294 366 396 379 308 146 212 584 491 486 529 570 721 516 320 683 728 918 1075 1288 1088
1000 1044 1098 1335 1455 1172 916 777 652 556 522 639 768 656 501 622 502 342 290 314 273 270 327 328 308 372 188 162 290 322 465 413 277 326 342 537 480 578 792 967 998 1057
984 903 867 1133 1087 830 757 739 635 660 639 654 782 602 552 531 382 167 114 198 251 223 288 247 195 44 97 206 260 204 98 123 284 60 5 80 76 201 291 778 1046 944
746 816 1073 859 793 735 706 668 560 526 629 658 549 601 447 492 316 80 37 48 106 110 156 252 77 90 196 114 136 49 237 96 0 0 0 16 44 200 160 474 503 699
672 619 493 382 503 600 654 767 602 572 578 391 497 407 362 414 241 164 64 25 4 30 94 112 71 82 60 45 60 45 95 0 0 0 4 0 0 66 247 352 620 609
549 618 716 830 744 862 776 614 639 540 354 426 525 434 394 506 237 168 42 9 2 0 0 26 94 148 51 123 200 13 0 0 0 119 0 2 62 7 19 234 546 913
588 644 582 643 728 808 877 626 604 448 285 325 424 348 411 460 149 81 38 35 0 0 0 0 129 178 76 78 1 0 0 0 33 8 0 13 130 54 26 242 472 735
668 393 472 787 695 693 805 713 626 430 293 303 477 434 349 346 112 142 78 4 7 0 0 0 31 58 75 12 0 0 0 8 3 0 36 17 114 168 312 202 382 562
446 423 543 965 691 758 658 661 585 376 360 200 206 300 308 307 126 153 78 23 0 0 0 0 0 10 0 0 0 0 12 13 35 38 19 0 0 25 141 382 414 356
482 529 1203 1566 854 767 760 691 577 367 260 155 144 269 237 385 216 244 109 34 0 0 0 0 0 0 8 5 0 3 22 111 6 53 42 11 14 34 1 39 124 264
608 1065 1182 1114 897 657 576 532 526 369 318 223 239 307 168 149 106 155 16 59 0 0 0 0 4 2 14 32 2 62 100 9 120 52 140 24 90 80 183 90 55 7
910 867 870 898 746 586 507 422 323 415 364 230 362 198 105 117 95 56 26 17 0 0 0 25 75 4 1 0 20 128 110 169 64 254 106 231 256 328 178 280 182 587
674 599 602 654 572 622 720 525 453 373 259 167 161 55 75 44 16 23 3 4 1 9 173 104 0 0 0 0 0 58 120 154 237 201 268 223 329 440 281 210 374 442
491 464 339 423 400 381 297 324 344 427 453 123 69 38 61 13 31 0 10 108 82 166 187 0 0 1 0 0 0 0 166 571 267 211 186 452 248 448 396 395 441 543
293 326 428 342 351 284 214 47 143 211 214 289 340 282 207 387 368 132 124 185 145 179 95 0 0 0 0 0 0 0 0 186 306 442 498 339 305 382 319 262 219 354
132 294 303 366 299 248 176 6 24 19 30 121 226 288 310 265 156 82 60 142 342 105 6 0 0 0 0 0 0 0 0 31 87 240 421 478 515 368 140 269 39 10
218 137 221 230 268 225 130 43 3 0 0 0 117 125 174 200 69 74 83 166 180 118 97 10 0 0 0 0 0 0 0 0 79 254 505 638 382 205 118 129 290 337
170 195 188 220 221 204 152 86 5 0 1 3 60 339 356 217 127 50 53 61 47 4 0 0 0 0 0 0 0 0 0 0 100 303 408 483 779 556 227 206 282 252
40 66 101 142 147 156 124 47 31 28 4 0 48 106 317 365 176 100 75 106 84 46 0 43 40 13 0 0 0 0 0 0 34 158 366 530 586 821 291 194 119 134
19 21 19 26 64 83 26 10 2 8 4 3 14 32 236 220 173 221 229 183 134 112 116 154 113 30 13 10 0 0 0 0 30 131 291 493 428 328 258 150 65 57
7 13 13 15 12 34 32 7 2 7 34 119 56 10 40 111 140 130 148 115 69 68 98 102 80 70 56 0 0 0 19 0 0 18 104 422 221 161 142 83 4 1
2 1 3 0 1 1 1 0 4 7 6 8 4 32 42 67 59 72 62 54 48 52 61 69 72 82 70 61 28 26 15 12 6 26 69 133 79 120 128 57 5 0
6 3 5 5 4 4 0 0 1 8 14 16 9 18 32 28 5 11 3 33 48 54 64 70 78 76 69 62 12 4 1 2 3 24 24 3 3 3 5 74 42 0

ECMWFNIL_con_mucape_081.txt.gz
CAPE
896 1056 924 1043 765 675 739 635 417 386 378 396 467 618 493 438 513 324 361 380 265 129 212 1 6 29 306 376 384 482 516 674 780 714 845 987 878 890 982 945 836 840
993 1055 1241 1316 1128 872 837 584 569 460 497 571 656 544 472 484 459 313 259 87 40 5 134 13 81 70 130 172 339 479 622 734 788 860 838 893 946 958 930 960 943 914
876 1092 1288 1249 1196 980 789 853 842 709 731 707 586 584 504 482 401 277 39 6 2 1 7 27 57 106 76 312 365 431 534 689 797 934 799 698 809 1098 888 903 853 753
1038 1244 1092 1037 1015 860 880 975 866 804 758 696 646 547 382 386 338 227 150 102 0 4 29 83 71 185 51 149 312 399 497 657 750 747 765 790 832 949 1034 1008 1015 746
786 846 610 541 619 795 1085 739 578 607 637 579 526 421 290 216 176 5 0 0 8 67 106 91 153 52 53 269 242 288 338 348 470 546 448 492 726 701 754 856 1102 692
818 653 635 453 662 837 792 528 435 413 428 439 381 316 276 39 0 2 4 7 21 60 58 95 11 2 58 243 237 259 203 10 20 49 44 352 416 517 697 832 755 817
668 594 602 634 454 609 497 490 442 410 397 391 346 251 7 0 0 2 4 16 37 54 79 5 0 14 6 0 0 0 0 3 4 5 0 0 178 340 576 722 674 883
654 652 685 411 327 461 469 456 413 376 402 348 233 209 165 0 123 1 3 6 9 11 26 0 0 47 0 0 0 9 32 1 0 0 0 0 0 412 567 614 607 797
801 678 606 210 311 414 449 449 362 360 366 306 207 217 188 150 1 1 0 0 0 0 3 0 0 0 0 2 0 0 0 0 0 0 0 0 10 305 406 436 545 699
727 692 579 422 363 382 418 252 335 332 329 292 183 205 197 142 6 8 0 0 0 0 0 3 27 1 0 0 0 0 0 0 0 0 0 0 0 27 401 552 628 711
620 599 533 406 393 462 326 290 277 248 217 178 23 181 195 124 0 2 0 0 0 0 0 0 5 0 0 0 0 0 0 0 0 0 1 0 0 297 495 654 682 690
552 443 305 445 444 436 367 264 1 2 29 45 24 211 186 0 0 0 0 0 0 0 0 0 0 0 0 0 0 0 0 0 0 0 0 0 8 35 267 465 556 560
335 289 332 465 389 324 287 252 1 3 26 49 58 194 181 0 0 0 0 0 0 0 0 0 0 0 0 0 0 0 0 0 0 0 0 0 0 0 11 326 339 189
229 288 535 405 388 294 323 195 3 1 6 6 105 114 6 5 16 1 0 0 0 0 0 0 0 0 0 0 0 0 0 4 0 0 0 6 6 3 0 0 0 0
657 640 424 323 332 250 222 46 1 0 0 4 6 7 17 4 2 0 2 0 0 0 0 0 0 0 0 0 0 0 0 0 0 1 16 13 9 3 2 0 0 0
453 356 242 218 295 355 280 56 8 2 0 0 0 21 103 63 0 0 0 0 0 0 0 0 0 0 0 0 0 1 16 24 23 29 10 38 38 0 1 19 5 31
363 360 270 190 242 255 174 130 2 1 0 0 0 0 55 8 0 1 0 0 0 0 0 0 0 0 0 0 0 0 0 11 191 246 198 97 190 151 2 80 132 130
309 346 279 228 262 261 169 82 0 1 1 8 10 8 6 16 32 14 1 0 0 0 0 0 0 0 0 0 0 0 0 0 111 249 202 141 133 149 165 100 10 74
354 345 294 254 209 201 139 119 58 0 0 6 14 9 18 72 14 0 0 0 0 0 0 0 0 0 0 0 0 0 7 0 4 47 220 223 164 140 120 63 5 71
442 386 336 257 175 104 104 135 20 0 0 0 0 0 0 0 0 0 0 0 0 0 0 0 0 0 0 0 0 52 102 134 175 210 283 226 231 200 123 29 97 124
284 364 338 256 202 163 80 4 0 0 0 0 1 1 0 0 0 0 0 0 0 0 0 0 47 0 20 0 24 42 52 77 123 248 308 306 220 150 114 118 32 28
60 173 155 226 235 179 109 85 38 0 0 0 0 0 0 0 0 0 0 0 0 24 0 7 42 22 43 32 0 0 0 0 76 223 268 253 216 172 143 122 110 90
14 58 48 14 121 175 127 111 50 8 7 3 0 26 46 42 13 4 2 1 0 0 0 0 0 0 20 0 0 0 0 1 101 139 133 138 126 105 86 72 75 74
4 15 19 31 43 64 85 124 116 67 14 0 5 45 71 51 20 8 8 14 18 25 36 30 0 0 0 0 0 0 24 51 82 94 96 102 84 63 48 40 38 44
2 5 5 9 13 23 36 74 84 25 0 0 12 67 63 71 45 8 4 3 17 27 40 40 38 38 14 41 0 31 47 52 57 69 76 78 76 57 36 33 31 13
10 2 3 4 7 8 18 16 3 2 2 0 1 39 55 58 32 2 0 10 27 28 36 39 44 43 30 3 3 31 26 3 54 52 51 46 42 40 29 1 1 1